Time,TemperatureF,DewpointF,PressureIn,WindDirection,WindDirectionDegrees,WindSpeedMPH,WindSpeedGustMPH,Humidity,HourlyPrecipIn,Conditions,Clouds,dailyrainin,SoftwareType,DateUTC
2013-05-19 00:02:00,69.2,62.4,29.69,ESE,123,8.0,9.0,79,0.00,,,0.00,Wunderground v.1.13,2013-05-19 05:02:00,
2013-05-19 00:05:00,69.1,62.3,29.69,ESE,118,7.0,7.0,79,0.00,,,0.00,Wunderground v.1.13,2013-05-19 05:05:00,
2013-05-19 00:07:00,69.1,62.3,29.69,ESE,118,7.0,7.0,79,0.00,,,0.00,Wunderground v.1.13,2013-05-19 05:07:00,
2013-05-19 00:09:00,69.0,62.2,29.69,ESE,118,7.0,8.0,79,0.00,,,0.00,Wunderground v.1.13,2013-05-19 05:09:00,
2013-05-19 00:10:00,69.0,62.2,29.69,East,92,7.0,7.0,79,0.00,,,0.00,Wunderground v.1.13,2013-05-19 05:10:00,
2013-05-19 00:13:00,69.1,62.3,29.69,ENE,63,6.0,8.0,79,0.00,,,0.00,Wunderground v.1.13,2013-05-19 05:13:00,
2013-05-19 00:14:00,69.2,62.4,29.69,East,79,6.0,8.0,79,0.00,,,0.00,Wunderground v.1.13,2013-05-19 05:14:00,
2013-05-19 00:16:00,69.3,62.1,29.69,ESE,113,6.0,8.0,78,0.00,,,0.00,Wunderground v.1.13,2013-05-19 05:16:00,
2013-05-19 00:18:00,69.4,62.2,29.69,ESE,110,5.0,8.0,78,0.00,,,0.00,Wunderground v.1.13,2013-05-19 05:18:00,
2013-05-19 00:21:00,69.4,62.2,29.69,ESE,107,5.0,5.0,78,0.00,,,0.00,Wunderground v.1.13,2013-05-19 05:21:00,
2013-05-19 00:23:00,69.4,62.2,29.69,ESE,107,4.0,5.0,78,0.00,,,0.00,Wunderground v.1.13,2013-05-19 05:23:00,
2013-05-19 00:25:00,69.3,61.8,29.69,ESE,107,3.0,3.0,77,0.00,,,0.00,Wunderground v.1.13,2013-05-19 05:25:00,
2013-05-19 00:26:00,69.2,61.7,29.69,ESE,107,3.0,3.0,77,0.00,,,0.00,Wunderground v.1.13,2013-05-19 05:26:00,
2013-05-19 00:27:00,69.1,61.9,29.69,ESE,107,3.0,4.0,78,0.00,,,0.00,Wunderground v.1.13,2013-05-19 05:27:00,
2013-05-19 00:28:00,69.0,61.9,29.69,ESE,107,3.0,4.0,78,0.00,,,0.00,Wunderground v.1.13,2013-05-19 05:28:00,
2013-05-19 00:32:00,68.7,61.9,29.69,ESE,106,3.0,5.0,79,0.00,,,0.00,Wunderground v.1.13,2013-05-19 05:32:00,
2013-05-19 00:34:00,68.7,61.9,29.69,ENE,65,3.0,5.0,79,0.00,,,0.00,Wunderground v.1.13,2013-05-19 05:34:00,
2013-05-19 00:35:00,68.7,61.9,29.69,ENE,59,4.0,4.0,79,0.00,,,0.00,Wunderground v.1.13,2013-05-19 05:35:00,
2013-05-19 00:36:00,68.7,61.9,29.69,ENE,59,4.0,4.0,79,0.00,,,0.00,Wunderground v.1.13,2013-05-19 05:36:00,
2013-05-19 00:38:00,68.7,61.9,29.69,ENE,59,4.0,4.0,79,0.00,,,0.00,Wunderground v.1.13,2013-05-19 05:38:00,
2013-05-19 00:39:00,68.7,61.9,29.69,ENE,59,4.0,4.0,79,0.00,,,0.00,Wunderground v.1.13,2013-05-19 05:39:00,
2013-05-19 00:40:00,68.7,61.9,29.69,ENE,59,4.0,4.0,79,0.00,,,0.00,Wunderground v.1.13,2013-05-19 05:40:00,
2013-05-19 00:43:00,68.6,61.8,29.69,ENE,59,3.0,4.0,79,0.00,,,0.00,Wunderground v.1.13,2013-05-19 05:43:00,
2013-05-19 00:46:00,68.4,61.6,29.69,ENE,59,2.0,2.0,79,0.00,,,0.00,Wunderground v.1.13,2013-05-19 05:46:00,
2013-05-19 00:47:00,68.3,61.5,29.69,ENE,74,2.0,4.0,79,0.00,,,0.00,Wunderground v.1.13,2013-05-19 05:47:00,
2013-05-19 00:48:00,68.3,61.9,29.68,ENE,62,2.0,5.0,80,0.00,,,0.00,Wunderground v.1.13,2013-05-19 05:48:00,
2013-05-19 00:51:00,68.1,61.7,29.68,ENE,65,3.0,5.0,80,0.00,,,0.00,Wunderground v.1.13,2013-05-19 05:51:00,
2013-05-19 00:52:00,68.0,61.6,29.68,ENE,65,3.0,5.0,80,0.00,,,0.00,Wunderground v.1.13,2013-05-19 05:52:00,
2013-05-19 00:54:00,68.0,61.6,29.68,ENE,65,4.0,5.0,80,0.00,,,0.00,Wunderground v.1.13,2013-05-19 05:54:00,
2013-05-19 00:58:00,67.8,61.4,29.69,ENE,65,4.0,4.0,80,0.00,,,0.00,Wunderground v.1.13,2013-05-19 05:58:00,
2013-05-19 00:59:00,67.8,61.8,29.69,ENE,65,4.0,4.0,81,0.00,,,0.00,Wunderground v.1.13,2013-05-19 05:59:00,
2013-05-19 01:02:00,67.8,61.8,29.68,ENE,65,3.0,4.0,81,0.00,,,0.00,Wunderground v.1.13,2013-05-19 06:02:00,
2013-05-19 01:05:00,67.8,61.8,29.68,ENE,65,2.0,2.0,81,0.00,,,0.00,Wunderground v.1.13,2013-05-19 06:05:00,
2013-05-19 01:08:00,67.7,61.7,29.68,ENE,65,2.0,3.0,81,0.00,,,0.00,Wunderground v.1.13,2013-05-19 06:08:00,
2013-05-19 01:11:00,67.6,61.6,29.68,ENE,65,2.0,2.0,81,0.00,,,0.00,Wunderground v.1.13,2013-05-19 06:11:00,
2013-05-19 01:13:00,67.6,61.6,29.68,ENE,65,2.0,2.0,81,0.00,,,0.00,Wunderground v.1.13,2013-05-19 06:13:00,
2013-05-19 01:17:00,67.6,61.6,29.68,ENE,65,2.0,4.0,81,0.00,,,0.00,Wunderground v.1.13,2013-05-19 06:17:00,
2013-05-19 01:19:00,67.6,61.6,29.68,ENE,65,2.0,4.0,81,0.00,,,0.00,Wunderground v.1.13,2013-05-19 06:19:00,
2013-05-19 01:20:00,67.6,61.6,29.68,ENE,65,2.0,4.0,81,0.00,,,0.00,Wunderground v.1.13,2013-05-19 06:20:00,
2013-05-19 01:22:00,67.5,61.5,29.68,ENE,65,2.0,4.0,81,0.00,,,0.00,Wunderground v.1.13,2013-05-19 06:22:00,
2013-05-19 01:23:00,67.5,61.5,29.68,ENE,65,2.0,4.0,81,0.00,,,0.00,Wunderground v.1.13,2013-05-19 06:23:00,
2013-05-19 01:27:00,67.4,61.4,29.68,ENE,65,2.0,5.0,81,0.00,,,0.00,Wunderground v.1.13,2013-05-19 06:27:00,
2013-05-19 01:28:00,67.3,61.6,29.68,ENE,65,2.0,5.0,82,0.00,,,0.00,Wunderground v.1.13,2013-05-19 06:28:00,
2013-05-19 01:29:00,67.3,61.6,29.68,ENE,65,3.0,5.0,82,0.00,,,0.00,Wunderground v.1.13,2013-05-19 06:29:00,
2013-05-19 01:32:00,67.2,61.5,29.68,ENE,67,3.0,5.0,82,0.00,,,0.00,Wunderground v.1.13,2013-05-19 06:32:00,
2013-05-19 01:34:00,67.2,61.5,29.68,ENE,67,3.0,5.0,82,0.00,,,0.00,Wunderground v.1.13,2013-05-19 06:34:00,
2013-05-19 01:35:00,67.1,61.4,29.68,ENE,67,3.0,4.0,82,0.00,,,0.00,Wunderground v.1.13,2013-05-19 06:35:00,
2013-05-19 01:38:00,67.0,61.3,29.68,ENE,68,3.0,5.0,82,0.00,,,0.00,Wunderground v.1.13,2013-05-19 06:38:00,
2013-05-19 01:41:00,66.9,61.2,29.68,ENE,70,3.0,6.0,82,0.00,,,0.00,Wunderground v.1.13,2013-05-19 06:41:00,
2013-05-19 01:42:00,66.9,61.2,29.68,ENE,71,3.0,6.0,82,0.00,,,0.00,Wunderground v.1.13,2013-05-19 06:42:00,
2013-05-19 01:43:00,66.8,61.1,29.68,ENE,72,3.0,6.0,82,0.00,,,0.00,Wunderground v.1.13,2013-05-19 06:43:00,
2013-05-19 01:46:00,66.7,61.4,29.68,ENE,72,3.0,3.0,83,0.00,,,0.00,Wunderground v.1.13,2013-05-19 06:46:00,
2013-05-19 01:47:00,66.7,61.4,29.68,ENE,72,3.0,5.0,83,0.00,,,0.00,Wunderground v.1.13,2013-05-19 06:47:00,
2013-05-19 01:49:00,66.7,61.4,29.68,ENE,72,3.0,5.0,83,0.00,,,0.00,Wunderground v.1.13,2013-05-19 06:49:00,
2013-05-19 01:55:00,66.7,61.4,29.68,ENE,72,2.0,3.0,83,0.00,,,0.00,Wunderground v.1.13,2013-05-19 06:55:00,
2013-05-19 01:58:00,66.7,61.4,29.68,ENE,72,2.0,3.0,83,0.00,,,0.00,Wunderground v.1.13,2013-05-19 06:58:00,
2013-05-19 01:59:00,66.7,61.4,29.68,ENE,72,2.0,5.0,83,0.00,,,0.00,Wunderground v.1.13,2013-05-19 06:59:00,
2013-05-19 02:01:00,66.6,61.3,29.69,ENE,71,3.0,3.0,83,0.00,,,0.00,Wunderground v.1.13,2013-05-19 07:01:00,
2013-05-19 02:03:00,66.6,61.3,29.69,ENE,71,3.0,4.0,83,0.00,,,0.00,Wunderground v.1.13,2013-05-19 07:03:00,
2013-05-19 02:05:00,66.6,61.3,29.69,ENE,71,3.0,3.0,83,0.00,,,0.00,Wunderground v.1.13,2013-05-19 07:05:00,
2013-05-19 02:09:00,66.6,61.3,29.69,East,84,3.0,7.0,83,0.00,,,0.00,Wunderground v.1.13,2013-05-19 07:09:00,
2013-05-19 02:10:00,66.6,61.3,29.69,ESE,106,3.0,7.0,83,0.00,,,0.00,Wunderground v.1.13,2013-05-19 07:10:00,
2013-05-19 02:12:00,66.7,61.4,29.69,East,98,4.0,7.0,83,0.00,,,0.00,Wunderground v.1.13,2013-05-19 07:12:00,
2013-05-19 02:14:00,66.8,61.5,29.69,ENE,62,4.0,7.0,83,0.00,,,0.00,Wunderground v.1.13,2013-05-19 07:14:00,
2013-05-19 02:15:00,66.8,61.5,29.69,East,86,4.0,4.0,83,0.00,,,0.00,Wunderground v.1.13,2013-05-19 07:15:00,
2013-05-19 02:16:00,66.8,61.5,29.69,East,86,4.0,4.0,83,0.00,,,0.00,Wunderground v.1.13,2013-05-19 07:16:00,
2013-05-19 02:20:00,66.6,61.3,29.70,East,82,4.0,6.0,83,0.00,,,0.00,Wunderground v.1.13,2013-05-19 07:20:00,
2013-05-19 02:21:00,66.6,61.3,29.70,East,83,4.0,6.0,83,0.00,,,0.00,Wunderground v.1.13,2013-05-19 07:21:00,
2013-05-19 02:22:00,66.6,61.3,29.70,East,83,3.0,6.0,83,0.00,,,0.00,Wunderground v.1.13,2013-05-19 07:22:00,
2013-05-19 02:23:00,66.6,61.3,29.70,East,83,3.0,6.0,83,0.00,,,0.00,Wunderground v.1.13,2013-05-19 07:23:00,
2013-05-19 02:25:00,66.6,61.6,29.70,ENE,69,3.0,4.0,84,0.00,,,0.00,Wunderground v.1.13,2013-05-19 07:25:00,
2013-05-19 02:28:00,66.7,61.4,29.70,ENE,73,3.0,5.0,83,0.00,,,0.00,Wunderground v.1.13,2013-05-19 07:28:00,
2013-05-19 02:29:00,66.7,61.4,29.70,ENE,72,3.0,5.0,83,0.00,,,0.00,Wunderground v.1.13,2013-05-19 07:29:00,
2013-05-19 02:30:00,66.7,61.4,29.70,ENE,73,3.0,3.0,83,0.00,,,0.00,Wunderground v.1.13,2013-05-19 07:30:00,
2013-05-19 02:32:00,66.7,61.4,29.70,ENE,73,3.0,3.0,83,0.00,,,0.00,Wunderground v.1.13,2013-05-19 07:32:00,
2013-05-19 02:33:00,66.7,61.4,29.70,ENE,72,3.0,3.0,83,0.00,,,0.00,Wunderground v.1.13,2013-05-19 07:33:00,
2013-05-19 02:36:00,66.7,61.4,29.70,ENE,72,2.0,4.0,83,0.00,,,0.00,Wunderground v.1.13,2013-05-19 07:36:00,
2013-05-19 02:38:00,66.7,61.4,29.70,ENE,73,2.0,4.0,83,0.00,,,0.00,Wunderground v.1.13,2013-05-19 07:38:00,
2013-05-19 02:39:00,66.7,61.4,29.70,ENE,73,2.0,4.0,83,0.00,,,0.00,Wunderground v.1.13,2013-05-19 07:39:00,
2013-05-19 02:40:00,66.7,61.4,29.70,ENE,72,2.0,2.0,83,0.00,,,0.00,Wunderground v.1.13,2013-05-19 07:40:00,
2013-05-19 02:44:00,66.7,61.4,29.70,ENE,72,2.0,2.0,83,0.00,,,0.00,Wunderground v.1.13,2013-05-19 07:44:00,
2013-05-19 02:46:00,66.7,61.4,29.70,ENE,72,2.0,2.0,83,0.00,,,0.00,Wunderground v.1.13,2013-05-19 07:46:00,
2013-05-19 02:47:00,66.7,61.4,29.70,ENE,72,2.0,5.0,83,0.00,,,0.00,Wunderground v.1.13,2013-05-19 07:47:00,
2013-05-19 02:49:00,66.7,61.4,29.70,ENE,74,2.0,5.0,83,0.00,,,0.00,Wunderground v.1.13,2013-05-19 07:49:00,
2013-05-19 02:53:00,66.6,61.3,29.70,ENE,74,2.0,4.0,83,0.00,,,0.00,Wunderground v.1.13,2013-05-19 07:53:00,
2013-05-19 02:55:00,66.6,61.3,29.70,ENE,74,3.0,3.0,83,0.00,,,0.00,Wunderground v.1.13,2013-05-19 07:55:00,
2013-05-19 02:56:00,66.6,61.3,29.70,ENE,74,3.0,5.0,83,0.00,,,0.00,Wunderground v.1.13,2013-05-19 07:56:00,
2013-05-19 02:57:00,66.6,61.3,29.70,ENE,75,3.0,5.0,83,0.00,,,0.00,Wunderground v.1.13,2013-05-19 07:57:00,
2013-05-19 02:59:00,66.6,61.3,29.70,ENE,75,3.0,5.0,83,0.00,,,0.00,Wunderground v.1.13,2013-05-19 07:59:00,
2013-05-19 03:01:00,66.5,61.2,29.70,ENE,75,3.0,3.0,83,0.00,,,0.00,Wunderground v.1.13,2013-05-19 08:01:00,
2013-05-19 03:03:00,66.5,61.2,29.70,ENE,75,3.0,4.0,83,0.00,,,0.00,Wunderground v.1.13,2013-05-19 08:03:00,
2013-05-19 03:04:00,66.5,61.2,29.70,ENE,75,3.0,5.0,83,0.00,,,0.00,Wunderground v.1.13,2013-05-19 08:04:00,
2013-05-19 03:05:00,66.4,61.4,29.70,ENE,75,3.0,5.0,84,0.00,,,0.00,Wunderground v.1.13,2013-05-19 08:05:00,
2013-05-19 03:06:00,66.4,61.4,29.70,ENE,74,3.0,5.0,84,0.00,,,0.00,Wunderground v.1.13,2013-05-19 08:06:00,
2013-05-19 03:11:00,66.3,61.3,29.70,ENE,74,2.0,4.0,84,0.00,,,0.00,Wunderground v.1.13,2013-05-19 08:11:00,
2013-05-19 03:13:00,66.3,61.3,29.70,ENE,63,3.0,6.0,84,0.00,,,0.00,Wunderground v.1.13,2013-05-19 08:13:00,
2013-05-19 03:14:00,66.3,61.3,29.70,ENE,70,3.0,6.0,84,0.00,,,0.00,Wunderground v.1.13,2013-05-19 08:14:00,
2013-05-19 03:16:00,66.3,61.3,29.70,ENE,75,3.0,5.0,84,0.00,,,0.00,Wunderground v.1.13,2013-05-19 08:16:00,
2013-05-19 03:18:00,66.3,61.3,29.70,ENE,76,3.0,5.0,84,0.00,,,0.00,Wunderground v.1.13,2013-05-19 08:18:00,
2013-05-19 03:19:00,66.3,61.3,29.70,ENE,67,3.0,5.0,84,0.00,,,0.00,Wunderground v.1.13,2013-05-19 08:19:00,
2013-05-19 03:20:00,66.3,61.3,29.70,ENE,68,4.0,4.0,84,0.00,,,0.00,Wunderground v.1.13,2013-05-19 08:20:00,
2013-05-19 03:22:00,66.3,61.3,29.70,East,94,4.0,4.0,84,0.00,,,0.00,Wunderground v.1.13,2013-05-19 08:22:00,
2013-05-19 03:25:00,66.3,61.3,29.70,ENE,68,3.0,4.0,84,0.00,,,0.00,Wunderground v.1.13,2013-05-19 08:25:00,
2013-05-19 03:28:00,66.3,61.3,29.70,ENE,74,3.0,6.0,84,0.00,,,0.00,Wunderground v.1.13,2013-05-19 08:28:00,
2013-05-19 03:29:00,66.4,61.4,29.70,ENE,74,3.0,6.0,84,0.00,,,0.00,Wunderground v.1.13,2013-05-19 08:29:00,
2013-05-19 03:30:00,66.3,61.3,29.70,ENE,78,4.0,4.0,84,0.00,,,0.00,Wunderground v.1.13,2013-05-19 08:30:00,
2013-05-19 03:33:00,66.4,61.4,29.70,ENE,78,3.0,4.0,84,0.00,,,0.00,Wunderground v.1.13,2013-05-19 08:33:00,
2013-05-19 03:35:00,66.3,61.3,29.70,ENE,78,3.0,3.0,84,0.00,,,0.00,Wunderground v.1.13,2013-05-19 08:35:00,
2013-05-19 03:39:00,66.3,61.3,29.70,East,87,3.0,6.0,84,0.00,,,0.00,Wunderground v.1.13,2013-05-19 08:39:00,
2013-05-19 03:40:00,66.3,61.3,29.70,East,88,3.0,5.0,84,0.00,,,0.00,Wunderground v.1.13,2013-05-19 08:40:00,
2013-05-19 03:42:00,66.4,61.4,29.70,East,88,3.0,5.0,84,0.00,,,0.00,Wunderground v.1.13,2013-05-19 08:42:00,
2013-05-19 03:45:00,66.4,61.4,29.70,East,88,3.0,4.0,84,0.00,,,0.00,Wunderground v.1.13,2013-05-19 08:45:00,
2013-05-19 03:47:00,66.4,61.4,29.70,East,90,4.0,4.0,84,0.00,,,0.00,Wunderground v.1.13,2013-05-19 08:47:00,
2013-05-19 03:49:00,66.4,61.4,29.70,East,91,4.0,5.0,84,0.00,,,0.00,Wunderground v.1.13,2013-05-19 08:49:00,
2013-05-19 03:52:00,66.4,61.4,29.70,East,98,4.0,6.0,84,0.00,,,0.00,Wunderground v.1.13,2013-05-19 08:52:00,
2013-05-19 03:53:00,66.4,61.4,29.70,East,98,4.0,6.0,84,0.00,,,0.00,Wunderground v.1.13,2013-05-19 08:53:00,
2013-05-19 03:54:00,66.4,61.1,29.70,East,98,4.0,6.0,83,0.00,,,0.00,Wunderground v.1.13,2013-05-19 08:54:00,
2013-05-19 03:56:00,66.4,61.4,29.70,East,101,5.0,6.0,84,0.00,,,0.00,Wunderground v.1.13,2013-05-19 08:56:00,
2013-05-19 03:59:00,66.3,61.3,29.70,ESE,104,5.0,6.0,84,0.00,,,0.00,Wunderground v.1.13,2013-05-19 08:59:00,
2013-05-19 04:01:00,66.3,61.3,29.70,ESE,103,5.0,6.0,84,0.00,,,0.00,Wunderground v.1.13,2013-05-19 09:01:00,
2013-05-19 04:02:00,66.3,61.3,29.70,ESE,117,5.0,6.0,84,0.00,,,0.00,Wunderground v.1.13,2013-05-19 09:02:00,
2013-05-19 04:04:00,66.3,61.3,29.70,ESE,119,5.0,6.0,84,0.00,,,0.00,Wunderground v.1.13,2013-05-19 09:04:00,
2013-05-19 04:07:00,66.2,60.9,29.70,ESE,117,5.0,6.0,83,0.00,,,0.00,Wunderground v.1.13,2013-05-19 09:07:00,
2013-05-19 04:09:00,66.1,61.1,29.69,ESE,114,5.0,6.0,84,0.00,,,0.00,Wunderground v.1.13,2013-05-19 09:09:00,
2013-05-19 04:13:00,66.3,61.3,29.70,East,100,5.0,6.0,84,0.00,,,0.00,Wunderground v.1.13,2013-05-19 09:13:00,
2013-05-19 04:14:00,66.4,61.4,29.69,ESE,103,5.0,6.0,84,0.00,,,0.00,Wunderground v.1.13,2013-05-19 09:14:00,
2013-05-19 04:15:00,66.5,61.5,29.69,ESE,112,5.0,7.0,84,0.00,,,0.00,Wunderground v.1.13,2013-05-19 09:15:00,
2013-05-19 04:17:00,66.5,61.2,29.69,ESE,107,6.0,7.0,83,0.00,,,0.00,Wunderground v.1.13,2013-05-19 09:17:00,
2013-05-19 04:23:00,66.6,61.3,29.68,East,100,5.0,6.0,83,0.00,,,0.00,Wunderground v.1.13,2013-05-19 09:23:00,
2013-05-19 04:26:00,66.6,61.3,29.68,East,101,5.0,5.0,83,0.00,,,0.00,Wunderground v.1.13,2013-05-19 09:26:00,
2013-05-19 04:27:00,66.6,61.3,29.68,East,101,4.0,5.0,83,0.00,,,0.00,Wunderground v.1.13,2013-05-19 09:27:00,
2013-05-19 04:29:00,66.6,61.3,29.68,ESE,103,4.0,5.0,83,0.00,,,0.00,Wunderground v.1.13,2013-05-19 09:29:00,
2013-05-19 04:30:00,66.5,61.2,29.68,East,101,4.0,4.0,83,0.00,,,0.00,Wunderground v.1.13,2013-05-19 09:30:00,
2013-05-19 04:32:00,66.5,61.2,29.68,East,98,4.0,6.0,83,0.00,,,0.00,Wunderground v.1.13,2013-05-19 09:32:00,
2013-05-19 04:34:00,66.5,61.2,29.68,ESE,111,4.0,6.0,83,0.00,,,0.00,Wunderground v.1.13,2013-05-19 09:34:00,
2013-05-19 04:36:00,66.4,61.1,29.68,ESE,111,4.0,6.0,83,0.00,,,0.00,Wunderground v.1.13,2013-05-19 09:36:00,
2013-05-19 04:37:00,66.4,61.1,29.68,ESE,111,4.0,6.0,83,0.00,,,0.00,Wunderground v.1.13,2013-05-19 09:37:00,
2013-05-19 04:41:00,66.2,60.9,29.67,ESE,111,4.0,5.0,83,0.00,,,0.00,Wunderground v.1.13,2013-05-19 09:41:00,
2013-05-19 04:43:00,66.2,60.9,29.67,East,92,4.0,5.0,83,0.00,,,0.00,Wunderground v.1.13,2013-05-19 09:43:00,
2013-05-19 04:44:00,66.1,61.1,29.67,ENE,72,4.0,5.0,84,0.00,,,0.00,Wunderground v.1.13,2013-05-19 09:44:00,
2013-05-19 04:49:00,66.1,61.1,29.66,ENE,65,4.0,4.0,84,0.00,,,0.00,Wunderground v.1.13,2013-05-19 09:49:00,
2013-05-19 04:50:00,66.1,61.1,29.66,East,96,4.0,5.0,84,0.00,,,0.00,Wunderground v.1.13,2013-05-19 09:50:00,
2013-05-19 04:54:00,66.0,61.0,29.66,ESE,103,4.0,6.0,84,0.00,,,0.00,Wunderground v.1.13,2013-05-19 09:54:00,
2013-05-19 04:56:00,66.0,61.0,29.66,ENE,75,4.0,4.0,84,0.00,,,0.00,Wunderground v.1.13,2013-05-19 09:56:00,
2013-05-19 04:57:00,66.0,61.0,29.66,ENE,74,4.0,5.0,84,0.00,,,0.00,Wunderground v.1.13,2013-05-19 09:57:00,
2013-05-19 05:02:00,65.8,60.8,29.66,ENE,62,4.0,5.0,84,0.00,,,0.00,Wunderground v.1.13,2013-05-19 10:02:00,
2013-05-19 05:03:00,65.8,60.8,29.65,ENE,67,3.0,6.0,84,0.00,,,0.00,Wunderground v.1.13,2013-05-19 10:03:00,
2013-05-19 05:04:00,65.8,60.8,29.65,East,84,4.0,6.0,84,0.00,,,0.00,Wunderground v.1.13,2013-05-19 10:04:00,
2013-05-19 05:05:00,65.8,60.8,29.65,East,90,4.0,4.0,84,0.00,,,0.00,Wunderground v.1.13,2013-05-19 10:05:00,
2013-05-19 05:10:00,65.8,61.2,29.66,ESE,105,4.0,5.0,85,0.00,,,0.00,Wunderground v.1.13,2013-05-19 10:10:00,
2013-05-19 05:11:00,65.8,61.2,29.66,East,99,5.0,9.0,85,0.00,,,0.00,Wunderground v.1.13,2013-05-19 10:11:00,
2013-05-19 05:12:00,65.8,61.2,29.65,ESE,117,5.0,9.0,85,0.00,,,0.00,Wunderground v.1.13,2013-05-19 10:12:00,
2013-05-19 05:15:00,66.0,61.0,29.65,East,91,6.0,6.0,84,0.00,,,0.00,Wunderground v.1.13,2013-05-19 10:15:00,
2013-05-19 05:16:00,66.0,61.0,29.65,East,96,6.0,6.0,84,0.00,,,0.00,Wunderground v.1.13,2013-05-19 10:16:00,
2013-05-19 05:17:00,66.0,61.0,29.65,East,98,6.0,7.0,84,0.00,,,0.00,Wunderground v.1.13,2013-05-19 10:17:00,
2013-05-19 05:18:00,66.0,61.0,29.65,ENE,67,6.0,7.0,84,0.00,,,0.00,Wunderground v.1.13,2013-05-19 10:18:00,
2013-05-19 05:22:00,65.9,60.9,29.64,East,98,6.0,7.0,84,0.00,,,0.00,Wunderground v.1.13,2013-05-19 10:22:00,
2013-05-19 05:23:00,65.9,60.9,29.64,East,95,6.0,10.0,84,0.00,,,0.00,Wunderground v.1.13,2013-05-19 10:23:00,
2013-05-19 05:24:00,65.9,60.9,29.64,ESE,105,6.0,10.0,84,0.00,,,0.00,Wunderground v.1.13,2013-05-19 10:24:00,
2013-05-19 05:25:00,65.9,60.9,29.65,ESE,103,5.0,6.0,84,0.00,,,0.00,Wunderground v.1.13,2013-05-19 10:25:00,
2013-05-19 05:29:00,65.8,60.8,29.65,ESE,113,6.0,10.0,84,0.00,,,0.00,Wunderground v.1.13,2013-05-19 10:29:00,
2013-05-19 05:30:00,65.7,60.7,29.65,SE,126,7.0,10.0,84,0.00,,,0.00,Wunderground v.1.13,2013-05-19 10:30:00,
2013-05-19 05:31:00,65.7,60.7,29.65,SE,129,7.0,10.0,84,0.00,,,0.00,Wunderground v.1.13,2013-05-19 10:31:00,
2013-05-19 05:32:00,65.7,60.7,29.65,ESE,115,8.0,10.0,84,0.00,,,0.00,Wunderground v.1.13,2013-05-19 10:32:00,
2013-05-19 05:34:00,65.7,60.7,29.64,East,91,8.0,10.0,84,0.00,,,0.00,Wunderground v.1.13,2013-05-19 10:34:00,
2013-05-19 05:37:00,65.7,60.7,29.64,ESE,114,8.0,9.0,84,0.00,,,0.00,Wunderground v.1.13,2013-05-19 10:37:00,
2013-05-19 05:38:00,65.7,60.7,29.64,ESE,107,8.0,9.0,84,0.00,,,0.00,Wunderground v.1.13,2013-05-19 10:38:00,
2013-05-19 05:39:00,65.7,60.7,29.64,ESE,117,8.0,11.0,84,0.00,,,0.00,Wunderground v.1.13,2013-05-19 10:39:00,
2013-05-19 05:41:00,65.8,60.8,29.64,ESE,119,8.0,8.0,84,0.00,,,0.00,Wunderground v.1.13,2013-05-19 10:41:00,
2013-05-19 05:43:00,65.6,60.6,29.65,ESE,121,7.0,9.0,84,0.00,,,0.00,Wunderground v.1.13,2013-05-19 10:43:00,
2013-05-19 05:44:00,65.6,60.6,29.64,ESE,105,7.0,9.0,84,0.00,,,0.00,Wunderground v.1.13,2013-05-19 10:44:00,
2013-05-19 05:45:00,65.6,60.6,29.65,ESE,113,7.0,9.0,84,0.00,,,0.00,Wunderground v.1.13,2013-05-19 10:45:00,
2013-05-19 05:46:00,65.6,60.6,29.65,ESE,114,7.0,11.0,84,0.00,,,0.00,Wunderground v.1.13,2013-05-19 10:46:00,
2013-05-19 05:51:00,65.7,60.7,29.65,ESE,121,8.0,8.0,84,0.00,,,0.00,Wunderground v.1.13,2013-05-19 10:51:00,
2013-05-19 05:52:00,65.8,60.8,29.65,ESE,109,8.0,8.0,84,0.00,,,0.00,Wunderground v.1.13,2013-05-19 10:52:00,
2013-05-19 05:53:00,65.8,60.8,29.65,ESE,113,8.0,8.0,84,0.00,,,0.00,Wunderground v.1.13,2013-05-19 10:53:00,
2013-05-19 05:58:00,65.6,60.6,29.66,SE,126,8.0,12.0,84,0.00,,,0.00,Wunderground v.1.13,2013-05-19 10:58:00,
2013-05-19 05:59:00,65.6,60.6,29.66,ESE,114,7.0,12.0,84,0.00,,,0.00,Wunderground v.1.13,2013-05-19 10:59:00,
2013-05-19 06:00:00,65.6,60.6,29.67,ESE,116,8.0,8.0,84,0.00,,,0.00,Wunderground v.1.13,2013-05-19 11:00:00,
2013-05-19 06:01:00,65.6,60.6,29.67,ESE,119,8.0,9.0,84,0.00,,,0.00,Wunderground v.1.13,2013-05-19 11:01:00,
2013-05-19 06:06:00,65.6,60.6,29.66,ESE,109,8.0,11.0,84,0.00,,,0.00,Wunderground v.1.13,2013-05-19 11:06:00,
2013-05-19 06:08:00,65.8,60.8,29.66,East,101,9.0,11.0,84,0.00,,,0.00,Wunderground v.1.13,2013-05-19 11:08:00,
2013-05-19 06:09:00,65.8,60.8,29.66,East,98,9.0,11.0,84,0.00,,,0.00,Wunderground v.1.13,2013-05-19 11:09:00,
2013-05-19 06:10:00,65.9,60.9,29.66,SE,127,9.0,11.0,84,0.00,,,0.00,Wunderground v.1.13,2013-05-19 11:10:00,
2013-05-19 06:15:00,65.9,60.6,29.66,East,98,9.0,10.0,83,0.00,,,0.00,Wunderground v.1.13,2013-05-19 11:15:00,
2013-05-19 06:16:00,66.0,60.7,29.66,ESE,118,9.0,10.0,83,0.00,,,0.00,Wunderground v.1.13,2013-05-19 11:16:00,
2013-05-19 06:17:00,66.0,60.7,29.65,ESE,111,9.0,13.0,83,0.00,,,0.00,Wunderground v.1.13,2013-05-19 11:17:00,
2013-05-19 06:20:00,66.1,60.8,29.66,ESE,111,9.0,11.0,83,0.00,,,0.00,Wunderground v.1.13,2013-05-19 11:20:00,
2013-05-19 06:21:00,66.1,60.8,29.66,ESE,118,9.0,11.0,83,0.00,,,0.00,Wunderground v.1.13,2013-05-19 11:21:00,
2013-05-19 06:24:00,66.0,60.7,29.66,ESE,118,9.0,11.0,83,0.00,,,0.00,Wunderground v.1.13,2013-05-19 11:24:00,
2013-05-19 06:26:00,66.0,60.7,29.67,SE,125,9.0,9.0,83,0.00,,,0.00,Wunderground v.1.13,2013-05-19 11:26:00,
2013-05-19 06:28:00,66.0,60.7,29.67,ESE,117,9.0,11.0,83,0.00,,,0.00,Wunderground v.1.13,2013-05-19 11:28:00,
2013-05-19 06:30:00,66.0,60.7,29.67,ESE,118,9.0,9.0,83,0.00,,,0.00,Wunderground v.1.13,2013-05-19 11:30:00,
2013-05-19 06:31:00,66.0,60.7,29.67,ESE,119,9.0,9.0,83,0.00,,,0.00,Wunderground v.1.13,2013-05-19 11:31:00,
2013-05-19 06:33:00,66.0,60.7,29.67,SE,127,9.0,9.0,83,0.00,,,0.00,Wunderground v.1.13,2013-05-19 11:33:00,
2013-05-19 06:35:00,66.1,60.8,29.67,SE,124,9.0,10.0,83,0.00,,,0.00,Wunderground v.1.13,2013-05-19 11:35:00,
2013-05-19 06:36:00,66.1,60.8,29.67,SE,124,9.0,10.0,83,0.00,,,0.00,Wunderground v.1.13,2013-05-19 11:36:00,
2013-05-19 06:42:00,66.0,60.7,29.66,ESE,119,10.0,10.0,83,0.00,,,0.00,Wunderground v.1.13,2013-05-19 11:42:00,
2013-05-19 06:44:00,66.0,60.7,29.66,East,99,9.0,12.0,83,0.00,,,0.00,Wunderground v.1.13,2013-05-19 11:44:00,
2013-05-19 06:45:00,66.1,60.8,29.66,SE,125,9.0,13.0,83,0.00,,,0.00,Wunderground v.1.13,2013-05-19 11:45:00,
2013-05-19 06:48:00,66.0,60.7,29.66,SE,128,9.0,13.0,83,0.00,,,0.00,Wunderground v.1.13,2013-05-19 11:48:00,
2013-05-19 06:50:00,65.9,60.6,29.66,ESE,121,9.0,9.0,83,0.00,,,0.00,Wunderground v.1.13,2013-05-19 11:50:00,
2013-05-19 06:51:00,65.9,60.6,29.66,SE,124,9.0,11.0,83,0.00,,,0.00,Wunderground v.1.13,2013-05-19 11:51:00,
2013-05-19 06:53:00,65.9,60.6,29.67,SE,125,9.0,13.0,83,0.00,,,0.00,Wunderground v.1.13,2013-05-19 11:53:00,
2013-05-19 06:56:00,65.9,60.6,29.67,SE,128,9.0,11.0,83,0.00,,,0.00,Wunderground v.1.13,2013-05-19 11:56:00,
2013-05-19 06:57:00,66.0,60.7,29.67,SE,129,9.0,13.0,83,0.00,,,0.00,Wunderground v.1.13,2013-05-19 11:57:00,
2013-05-19 06:59:00,66.1,60.8,29.68,SE,130,9.0,13.0,83,0.00,,,0.00,Wunderground v.1.13,2013-05-19 11:59:00,
2013-05-19 07:00:00,66.2,60.9,29.68,ESE,120,10.0,10.0,83,0.00,,,0.00,Wunderground v.1.13,2013-05-19 12:00:00,
2013-05-19 07:01:00,66.1,60.8,29.67,ESE,122,10.0,10.0,83,0.00,,,0.00,Wunderground v.1.13,2013-05-19 12:01:00,
2013-05-19 07:05:00,66.2,60.9,29.68,ESE,117,10.0,10.0,83,0.00,,,0.00,Wunderground v.1.13,2013-05-19 12:05:00,
2013-05-19 07:06:00,66.1,60.8,29.68,ESE,117,10.0,10.0,83,0.00,,,0.00,Wunderground v.1.13,2013-05-19 12:06:00,
2013-05-19 07:08:00,66.1,60.8,29.67,ESE,118,10.0,11.0,83,0.00,,,0.00,Wunderground v.1.13,2013-05-19 12:08:00,
2013-05-19 07:10:00,66.1,60.8,29.67,ESE,122,9.0,12.0,83,0.00,,,0.00,Wunderground v.1.13,2013-05-19 12:10:00,
2013-05-19 07:13:00,65.9,60.9,29.67,SE,132,9.0,12.0,84,0.00,,,0.00,Wunderground v.1.13,2013-05-19 12:13:00,
2013-05-19 07:14:00,65.9,60.9,29.67,ESE,123,9.0,14.0,84,0.00,,,0.00,Wunderground v.1.13,2013-05-19 12:14:00,
2013-05-19 07:19:00,66.5,61.2,29.67,ESE,118,11.0,16.0,83,0.00,,,0.01,Wunderground v.1.13,2013-05-19 12:19:00,
2013-05-19 07:21:00,66.4,61.1,29.67,ESE,121,12.0,18.0,83,0.00,,,0.01,Wunderground v.1.13,2013-05-19 12:21:00,
2013-05-19 07:22:00,66.2,61.2,29.67,ESE,117,12.0,18.0,84,0.00,,,0.01,Wunderground v.1.13,2013-05-19 12:22:00,
2013-05-19 07:23:00,66.2,61.2,29.67,ESE,120,12.0,18.0,84,0.00,,,0.01,Wunderground v.1.13,2013-05-19 12:23:00,
2013-05-19 07:24:00,66.1,61.1,29.67,ESE,115,12.0,18.0,84,0.00,,,0.01,Wunderground v.1.13,2013-05-19 12:24:00,
2013-05-19 07:29:00,65.9,61.3,29.66,ESE,103,8.0,13.0,85,0.06,,,0.02,Wunderground v.1.13,2013-05-19 12:29:00,
2013-05-19 07:30:00,65.8,61.5,29.66,SE,133,6.0,6.0,86,0.06,,,0.02,Wunderground v.1.13,2013-05-19 12:30:00,
2013-05-19 07:32:00,65.8,61.5,29.66,SE,133,6.0,6.0,86,0.06,,,0.02,Wunderground v.1.13,2013-05-19 12:32:00,
2013-05-19 07:33:00,65.7,61.4,29.67,SE,133,5.0,6.0,86,0.06,,,0.02,Wunderground v.1.13,2013-05-19 12:33:00,
2013-05-19 07:36:00,65.5,61.5,29.66,SE,125,4.0,10.0,87,0.06,,,0.02,Wunderground v.1.13,2013-05-19 12:36:00,
2013-05-19 07:38:00,65.3,61.3,29.66,ESE,121,5.0,10.0,87,0.07,,,0.03,Wunderground v.1.13,2013-05-19 12:38:00,
2013-05-19 07:41:00,65.0,61.4,29.66,ESE,121,6.0,6.0,88,0.24,,,0.04,Wunderground v.1.13,2013-05-19 12:41:00,
2013-05-19 07:43:00,64.9,61.6,29.65,ESE,121,6.0,6.0,89,0.15,,,0.04,Wunderground v.1.13,2013-05-19 12:43:00,
2013-05-19 07:44:00,64.9,61.6,29.65,ESE,121,6.0,6.0,89,0.15,,,0.05,Wunderground v.1.13,2013-05-19 12:44:00,
2013-05-19 07:47:00,64.6,61.3,29.65,ESE,121,5.0,7.0,89,0.21,,,0.06,Wunderground v.1.13,2013-05-19 12:47:00,
2013-05-19 07:49:00,64.5,61.2,29.65,ESE,121,5.0,7.0,89,0.19,,,0.06,Wunderground v.1.13,2013-05-19 12:49:00,
2013-05-19 07:50:00,64.5,61.5,29.65,ESE,121,5.0,6.0,90,0.15,,,0.06,Wunderground v.1.13,2013-05-19 12:50:00,
2013-05-19 07:53:00,64.4,61.4,29.65,ESE,109,5.0,9.0,90,0.13,,,0.07,Wunderground v.1.13,2013-05-19 12:53:00,
2013-05-19 07:56:00,64.3,61.3,29.65,ESE,105,5.0,7.0,90,0.24,,,0.09,Wunderground v.1.13,2013-05-19 12:56:00,
2013-05-19 07:59:00,64.2,61.5,29.65,ESE,111,6.0,7.0,91,0.36,,,0.10,Wunderground v.1.13,2013-05-19 12:59:00,
2013-05-19 08:00:00,64.2,61.5,29.65,ESE,115,6.0,6.0,91,0.23,,,0.10,Wunderground v.1.13,2013-05-19 13:00:00,
2013-05-19 08:01:00,64.1,61.4,29.65,ESE,121,6.0,8.0,91,0.22,,,0.11,Wunderground v.1.13,2013-05-19 13:01:00,
2013-05-19 08:03:00,64.0,61.3,29.64,East,99,6.0,8.0,91,0.28,,,0.12,Wunderground v.1.13,2013-05-19 13:03:00,
2013-05-19 08:07:00,64.0,61.6,29.64,ENE,72,6.0,6.0,92,0.19,,,0.13,Wunderground v.1.13,2013-05-19 13:07:00,
2013-05-19 08:08:00,64.0,61.6,29.64,ENE,57,6.0,6.0,92,0.22,,,0.13,Wunderground v.1.13,2013-05-19 13:08:00,
2013-05-19 08:10:00,64.0,61.6,29.63,ESE,103,6.0,6.0,92,0.22,,,0.14,Wunderground v.1.13,2013-05-19 13:10:00,
2013-05-19 08:11:00,63.9,61.5,29.63,ENE,71,5.0,6.0,92,0.20,,,0.14,Wunderground v.1.13,2013-05-19 13:11:00,
2013-05-19 08:14:00,63.9,61.5,29.63,ENE,68,5.0,6.0,92,0.10,,,0.14,Wunderground v.1.13,2013-05-19 13:14:00,
2013-05-19 08:15:00,63.9,61.5,29.62,ENE,57,5.0,9.0,92,0.09,,,0.14,Wunderground v.1.13,2013-05-19 13:15:00,
2013-05-19 08:18:00,63.8,61.4,29.60,NE,44,6.0,10.0,92,0.06,,,0.14,Wunderground v.1.13,2013-05-19 13:18:00,
2013-05-19 08:20:00,63.8,61.4,29.59,NE,49,8.0,11.0,92,0.05,,,0.15,Wunderground v.1.13,2013-05-19 13:20:00,
2013-05-19 08:21:00,63.8,61.4,29.59,NE,38,8.0,12.0,92,0.05,,,0.15,Wunderground v.1.13,2013-05-19 13:21:00,
2013-05-19 08:23:00,63.9,61.5,29.58,NE,37,9.0,12.0,92,0.05,,,0.15,Wunderground v.1.13,2013-05-19 13:23:00,
2013-05-19 08:26:00,63.9,61.5,29.57,NE,48,10.0,12.0,92,0.05,,,0.15,Wunderground v.1.13,2013-05-19 13:26:00,
2013-05-19 08:27:00,63.9,61.5,29.57,NE,41,11.0,12.0,92,0.05,,,0.15,Wunderground v.1.13,2013-05-19 13:27:00,
2013-05-19 08:29:00,63.9,61.5,29.57,NE,46,11.0,12.0,92,0.05,,,0.15,Wunderground v.1.13,2013-05-19 13:29:00,
2013-05-19 08:30:00,63.9,61.5,29.56,ENE,72,11.0,11.0,92,0.05,,,0.15,Wunderground v.1.13,2013-05-19 13:30:00,
2013-05-19 08:32:00,63.9,61.5,29.56,East,97,11.0,12.0,92,0.05,,,0.15,Wunderground v.1.13,2013-05-19 13:32:00,
2013-05-19 08:33:00,63.9,61.5,29.56,NE,50,11.0,12.0,92,0.04,,,0.15,Wunderground v.1.13,2013-05-19 13:33:00,
2013-05-19 08:35:00,63.9,61.5,29.56,ENE,57,12.0,18.0,92,0.04,,,0.15,Wunderground v.1.13,2013-05-19 13:35:00,
2013-05-19 08:37:00,64.0,61.6,29.56,NE,55,13.0,18.0,92,0.00,,,0.15,Wunderground v.1.13,2013-05-19 13:37:00,
2013-05-19 08:39:00,64.0,61.6,29.56,NE,45,13.0,18.0,92,0.00,,,0.15,Wunderground v.1.13,2013-05-19 13:39:00,
2013-05-19 08:40:00,64.0,61.6,29.56,ENE,59,13.0,13.0,92,0.00,,,0.15,Wunderground v.1.13,2013-05-19 13:40:00,
2013-05-19 08:41:00,64.0,61.6,29.56,ENE,59,13.0,13.0,92,0.00,,,0.15,Wunderground v.1.13,2013-05-19 13:41:00,
2013-05-19 08:42:00,64.0,61.6,29.56,NE,51,13.0,13.0,92,0.00,,,0.15,Wunderground v.1.13,2013-05-19 13:42:00,
2013-05-19 08:44:00,64.0,61.3,29.57,ESE,105,12.0,13.0,91,0.00,,,0.15,Wunderground v.1.13,2013-05-19 13:44:00,
2013-05-19 08:49:00,64.2,61.5,29.58,ESE,103,9.0,12.0,91,0.00,,,0.15,Wunderground v.1.13,2013-05-19 13:49:00,
2013-05-19 08:51:00,64.2,61.5,29.59,East,87,9.0,13.0,91,0.00,,,0.15,Wunderground v.1.13,2013-05-19 13:51:00,
2013-05-19 08:53:00,64.2,61.5,29.59,ESE,123,9.0,13.0,91,0.00,,,0.15,Wunderground v.1.13,2013-05-19 13:53:00,
2013-05-19 08:55:00,64.3,61.6,29.59,ESE,111,9.0,9.0,91,0.00,,,0.15,Wunderground v.1.13,2013-05-19 13:55:00,
2013-05-19 08:57:00,64.3,61.6,29.59,ESE,105,9.0,9.0,91,0.00,,,0.15,Wunderground v.1.13,2013-05-19 13:57:00,
2013-05-19 08:59:00,64.3,61.6,29.59,ENE,74,9.0,9.0,91,0.00,,,0.15,Wunderground v.1.13,2013-05-19 13:59:00,
2013-05-19 09:00:00,64.3,61.6,29.59,ESE,121,9.0,9.0,91,0.00,,,0.15,Wunderground v.1.13,2013-05-19 14:00:00,
2013-05-19 09:02:00,64.3,61.6,29.60,ESE,120,8.0,9.0,91,0.00,,,0.15,Wunderground v.1.13,2013-05-19 14:02:00,
2013-05-19 09:05:00,64.3,61.6,29.61,SE,130,8.0,10.0,91,0.00,,,0.15,Wunderground v.1.13,2013-05-19 14:05:00,
2013-05-19 09:06:00,64.4,61.7,29.61,SE,128,8.0,10.0,91,0.00,,,0.15,Wunderground v.1.13,2013-05-19 14:06:00,
2013-05-19 09:07:00,64.4,61.7,29.61,SE,128,8.0,10.0,91,0.00,,,0.15,Wunderground v.1.13,2013-05-19 14:07:00,
2013-05-19 09:11:00,64.4,61.7,29.62,SE,126,6.0,7.0,91,0.00,,,0.15,Wunderground v.1.13,2013-05-19 14:11:00,
2013-05-19 09:12:00,64.5,61.8,29.62,SE,126,6.0,7.0,91,0.00,,,0.15,Wunderground v.1.13,2013-05-19 14:12:00,
2013-05-19 09:13:00,64.5,61.8,29.62,SW,222,5.0,7.0,91,0.00,,,0.15,Wunderground v.1.13,2013-05-19 14:13:00,
2013-05-19 09:16:00,64.6,61.9,29.64,SSE,150,4.0,5.0,91,0.00,,,0.15,Wunderground v.1.13,2013-05-19 14:16:00,
2013-05-19 09:18:00,64.7,62.0,29.64,West,267,3.0,5.0,91,0.00,,,0.15,Wunderground v.1.13,2013-05-19 14:18:00,
2013-05-19 09:19:00,64.8,62.1,29.64,SSW,209,3.0,5.0,91,0.00,,,0.15,Wunderground v.1.13,2013-05-19 14:19:00,
2013-05-19 09:20:00,64.8,62.1,29.64,SW,215,3.0,3.0,91,0.00,,,0.15,Wunderground v.1.13,2013-05-19 14:20:00,
2013-05-19 09:23:00,64.9,62.5,29.64,South,180,3.0,3.0,92,0.00,,,0.15,Wunderground v.1.13,2013-05-19 14:23:00,
2013-05-19 09:24:00,64.9,62.2,29.64,South,180,3.0,3.0,91,0.00,,,0.15,Wunderground v.1.13,2013-05-19 14:24:00,
2013-05-19 09:25:00,65.0,62.3,29.64,South,179,3.0,3.0,91,0.00,,,0.15,Wunderground v.1.13,2013-05-19 14:25:00,
2013-05-19 09:28:00,65.1,62.4,29.64,ESE,117,3.0,4.0,91,0.00,,,0.15,Wunderground v.1.13,2013-05-19 14:28:00,
2013-05-19 09:31:00,65.2,62.5,29.64,ESE,110,2.0,5.0,91,0.00,,,0.15,Wunderground v.1.13,2013-05-19 14:31:00,
2013-05-19 09:33:00,65.2,62.5,29.64,SE,124,2.0,5.0,91,0.00,,,0.15,Wunderground v.1.13,2013-05-19 14:33:00,
2013-05-19 09:38:00,65.2,62.5,29.64,SSE,161,3.0,4.0,91,0.00,,,0.15,Wunderground v.1.13,2013-05-19 14:38:00,
2013-05-19 09:39:00,65.2,62.5,29.64,WSW,251,3.0,4.0,91,0.00,,,0.15,Wunderground v.1.13,2013-05-19 14:39:00,
2013-05-19 09:40:00,65.2,62.5,29.64,SW,234,3.0,3.0,91,0.00,,,0.15,Wunderground v.1.13,2013-05-19 14:40:00,
2013-05-19 09:43:00,65.2,62.5,29.64,SE,127,3.0,3.0,91,0.00,,,0.15,Wunderground v.1.13,2013-05-19 14:43:00,
2013-05-19 09:44:00,65.2,62.5,29.64,SE,137,2.0,6.0,91,0.00,,,0.15,Wunderground v.1.13,2013-05-19 14:44:00,
2013-05-19 09:46:00,65.2,62.5,29.64,SE,137,2.0,2.0,91,0.00,,,0.15,Wunderground v.1.13,2013-05-19 14:46:00,
2013-05-19 09:47:00,65.2,62.5,29.64,SE,144,2.0,5.0,91,0.00,,,0.15,Wunderground v.1.13,2013-05-19 14:47:00,
2013-05-19 09:49:00,65.2,62.5,29.64,SSW,198,3.0,6.0,91,0.00,,,0.15,Wunderground v.1.13,2013-05-19 14:49:00,
2013-05-19 09:51:00,65.2,62.5,29.64,SSW,198,2.0,2.0,91,0.00,,,0.15,Wunderground v.1.13,2013-05-19 14:51:00,
2013-05-19 09:53:00,65.2,62.5,29.64,WSW,246,2.0,4.0,91,0.00,,,0.15,Wunderground v.1.13,2013-05-19 14:53:00,
2013-05-19 09:57:00,65.2,62.5,29.64,SW,226,3.0,6.0,91,0.00,,,0.15,Wunderground v.1.13,2013-05-19 14:57:00,
2013-05-19 09:58:00,65.2,62.5,29.64,SW,225,2.0,6.0,91,0.00,,,0.15,Wunderground v.1.13,2013-05-19 14:58:00,
2013-05-19 09:59:00,65.2,62.5,29.64,SW,225,2.0,6.0,91,0.00,,,0.15,Wunderground v.1.13,2013-05-19 14:59:00,
2013-05-19 10:00:00,65.2,62.5,29.64,SW,225,2.0,2.0,91,0.00,,,0.15,Wunderground v.1.13,2013-05-19 15:00:00,
2013-05-19 10:02:00,65.2,62.5,29.64,SSE,155,2.0,2.0,91,0.00,,,0.15,Wunderground v.1.13,2013-05-19 15:02:00,
2013-05-19 10:04:00,65.2,62.5,29.64,SSE,165,2.0,2.0,91,0.00,,,0.15,Wunderground v.1.13,2013-05-19 15:04:00,
2013-05-19 10:06:00,65.2,62.5,29.64,SSE,163,2.0,4.0,91,0.00,,,0.15,Wunderground v.1.13,2013-05-19 15:06:00,
2013-05-19 10:07:00,65.2,62.5,29.64,SSE,166,2.0,4.0,91,0.00,,,0.15,Wunderground v.1.13,2013-05-19 15:07:00,
2013-05-19 10:10:00,65.2,62.5,29.64,SSE,159,2.0,2.0,91,0.00,,,0.15,Wunderground v.1.13,2013-05-19 15:10:00,
2013-05-19 10:11:00,65.2,62.5,29.64,SSE,159,2.0,2.0,91,0.00,,,0.15,Wunderground v.1.13,2013-05-19 15:11:00,
2013-05-19 10:14:00,65.2,62.5,29.63,SSE,159,1.0,5.0,91,0.00,,,0.15,Wunderground v.1.13,2013-05-19 15:14:00,
2013-05-19 10:16:00,65.2,62.5,29.63,SSE,159,2.0,5.0,91,0.00,,,0.15,Wunderground v.1.13,2013-05-19 15:16:00,
2013-05-19 10:19:00,65.1,62.4,29.63,SSE,159,2.0,5.0,91,0.00,,,0.15,Wunderground v.1.13,2013-05-19 15:19:00,
2013-05-19 10:20:00,65.1,62.4,29.63,SE,145,2.0,6.0,91,0.00,,,0.15,Wunderground v.1.13,2013-05-19 15:20:00,
2013-05-19 10:23:00,65.2,62.5,29.64,SE,145,3.0,6.0,91,0.00,,,0.15,Wunderground v.1.13,2013-05-19 15:23:00,
2013-05-19 10:25:00,65.2,62.5,29.64,SE,145,2.0,2.0,91,0.00,,,0.15,Wunderground v.1.13,2013-05-19 15:25:00,
2013-05-19 10:28:00,65.3,62.6,29.64,SE,128,2.0,6.0,91,0.00,,,0.15,Wunderground v.1.13,2013-05-19 15:28:00,
2013-05-19 10:29:00,65.3,62.6,29.64,SE,128,2.0,6.0,91,0.00,,,0.15,Wunderground v.1.13,2013-05-19 15:29:00,
2013-05-19 10:32:00,65.3,62.6,29.63,SE,127,3.0,5.0,91,0.00,,,0.15,Wunderground v.1.13,2013-05-19 15:32:00,
2013-05-19 10:33:00,65.3,62.6,29.63,SE,126,3.0,5.0,91,0.00,,,0.15,Wunderground v.1.13,2013-05-19 15:33:00,
2013-05-19 10:34:00,65.3,62.6,29.63,SE,126,3.0,5.0,91,0.00,,,0.15,Wunderground v.1.13,2013-05-19 15:34:00,
2013-05-19 10:36:00,65.3,62.6,29.63,SE,128,4.0,7.0,91,0.00,,,0.15,Wunderground v.1.13,2013-05-19 15:36:00,
2013-05-19 10:38:00,65.4,62.7,29.63,SE,125,5.0,7.0,91,0.00,,,0.15,Wunderground v.1.13,2013-05-19 15:38:00,
2013-05-19 10:40:00,65.5,62.8,29.63,SE,126,5.0,9.0,91,0.00,,,0.15,Wunderground v.1.13,2013-05-19 15:40:00,
2013-05-19 10:42:00,65.7,63.0,29.62,SE,128,6.0,10.0,91,0.00,,,0.15,Wunderground v.1.13,2013-05-19 15:42:00,
2013-05-19 10:43:00,65.7,63.0,29.62,ESE,120,6.0,10.0,91,0.00,,,0.15,Wunderground v.1.13,2013-05-19 15:43:00,
2013-05-19 10:44:00,65.8,63.1,29.62,ESE,118,7.0,10.0,91,0.00,,,0.15,Wunderground v.1.13,2013-05-19 15:44:00,
2013-05-19 10:46:00,66.0,63.3,29.62,ESE,121,7.0,8.0,91,0.00,,,0.15,Wunderground v.1.13,2013-05-19 15:46:00,
2013-05-19 10:48:00,66.2,63.5,29.61,SE,126,8.0,9.0,91,0.00,,,0.15,Wunderground v.1.13,2013-05-19 15:48:00,
2013-05-19 10:50:00,66.4,63.4,29.61,ESE,121,8.0,11.0,90,0.00,,,0.15,Wunderground v.1.13,2013-05-19 15:50:00,
2013-05-19 10:53:00,66.8,63.5,29.61,ESE,121,9.0,13.0,89,0.00,,,0.15,Wunderground v.1.13,2013-05-19 15:53:00,
2013-05-19 10:54:00,66.9,63.6,29.61,ESE,107,9.0,13.0,89,0.00,,,0.15,Wunderground v.1.13,2013-05-19 15:54:00,
2013-05-19 10:56:00,67.0,63.3,29.62,SE,142,10.0,11.0,88,0.00,,,0.15,Wunderground v.1.13,2013-05-19 15:56:00,
2013-05-19 10:58:00,67.2,63.2,29.62,SE,128,10.0,11.0,87,0.00,,,0.15,Wunderground v.1.13,2013-05-19 15:58:00,
2013-05-19 10:59:00,67.3,63.3,29.61,SE,137,10.0,11.0,87,0.00,,,0.15,Wunderground v.1.13,2013-05-19 15:59:00,
2013-05-19 11:03:00,67.7,63.7,29.61,SE,125,9.0,10.0,87,0.00,,,0.15,Wunderground v.1.13,2013-05-19 16:03:00,
2013-05-19 11:05:00,68.0,63.3,29.61,SE,127,10.0,10.0,85,0.00,,,0.15,Wunderground v.1.13,2013-05-19 16:05:00,
2013-05-19 11:07:00,68.1,63.4,29.61,ESE,123,9.0,10.0,85,0.00,,,0.15,Wunderground v.1.13,2013-05-19 16:07:00,
2013-05-19 11:09:00,68.2,63.2,29.60,East,96,9.0,12.0,84,0.00,,,0.15,Wunderground v.1.13,2013-05-19 16:09:00,
2013-05-19 11:10:00,68.2,63.2,29.60,ESE,111,8.0,13.0,84,0.00,,,0.15,Wunderground v.1.13,2013-05-19 16:10:00,
2013-05-19 11:15:00,68.4,63.4,29.61,SE,129,9.0,9.0,84,0.00,,,0.15,Wunderground v.1.13,2013-05-19 16:15:00,
2013-05-19 11:16:00,68.4,63.4,29.61,SE,132,9.0,9.0,84,0.00,,,0.15,Wunderground v.1.13,2013-05-19 16:16:00,
2013-05-19 11:18:00,68.7,63.7,29.60,SE,128,9.0,9.0,84,0.00,,,0.15,Wunderground v.1.13,2013-05-19 16:18:00,
2013-05-19 11:23:00,69.3,63.9,29.60,ESE,123,9.0,11.0,83,0.00,,,0.15,Wunderground v.1.13,2013-05-19 16:23:00,
2013-05-19 11:24:00,69.4,64.0,29.60,ESE,121,9.0,11.0,83,0.00,,,0.15,Wunderground v.1.13,2013-05-19 16:24:00,
2013-05-19 11:25:00,69.4,64.0,29.60,ESE,119,8.0,8.0,83,0.00,,,0.15,Wunderground v.1.13,2013-05-19 16:25:00,
2013-05-19 11:26:00,69.5,64.1,29.60,ESE,117,8.0,9.0,83,0.00,,,0.15,Wunderground v.1.13,2013-05-19 16:26:00,
2013-05-19 11:31:00,69.4,63.7,29.60,ESE,121,11.0,13.0,82,0.00,,,0.15,Wunderground v.1.13,2013-05-19 16:31:00,
2013-05-19 11:32:00,69.3,63.6,29.60,ESE,120,11.0,13.0,82,0.00,,,0.15,Wunderground v.1.13,2013-05-19 16:32:00,
2013-05-19 11:36:00,69.4,63.3,29.60,ESE,114,12.0,16.0,81,0.00,,,0.15,Wunderground v.1.13,2013-05-19 16:36:00,
2013-05-19 11:37:00,69.4,63.3,29.61,ESE,104,13.0,16.0,81,0.00,,,0.15,Wunderground v.1.13,2013-05-19 16:37:00,
2013-05-19 11:38:00,69.5,63.4,29.60,ESE,117,13.0,16.0,81,0.00,,,0.15,Wunderground v.1.13,2013-05-19 16:38:00,
2013-05-19 11:39:00,69.6,63.5,29.61,SE,133,12.0,16.0,81,0.00,,,0.15,Wunderground v.1.13,2013-05-19 16:39:00,
2013-05-19 11:41:00,69.8,63.7,29.61,ESE,112,12.0,13.0,81,0.00,,,0.15,Wunderground v.1.13,2013-05-19 16:41:00,
2013-05-19 11:42:00,69.8,63.7,29.61,ESE,122,12.0,13.0,81,0.00,,,0.15,Wunderground v.1.13,2013-05-19 16:42:00,
2013-05-19 11:43:00,69.9,63.8,29.61,SE,126,12.0,13.0,81,0.00,,,0.15,Wunderground v.1.13,2013-05-19 16:43:00,
2013-05-19 11:46:00,70.4,63.9,29.60,ESE,114,11.0,11.0,80,0.00,,,0.15,Wunderground v.1.13,2013-05-19 16:46:00,
2013-05-19 11:47:00,70.5,63.7,29.61,SE,130,10.0,11.0,79,0.00,,,0.15,Wunderground v.1.13,2013-05-19 16:47:00,
2013-05-19 11:48:00,70.5,63.7,29.60,ESE,110,10.0,16.0,79,0.00,,,0.15,Wunderground v.1.13,2013-05-19 16:48:00,
2013-05-19 11:50:00,70.7,63.9,29.60,ESE,107,10.0,10.0,79,0.00,,,0.15,Wunderground v.1.13,2013-05-19 16:50:00,
2013-05-19 11:53:00,70.7,63.9,29.60,ESE,123,10.0,11.0,79,0.00,,,0.15,Wunderground v.1.13,2013-05-19 16:53:00,
2013-05-19 11:56:00,71.0,63.8,29.60,ESE,123,10.0,11.0,78,0.00,,,0.15,Wunderground v.1.13,2013-05-19 16:56:00,
2013-05-19 11:57:00,71.2,64.0,29.59,SE,138,10.0,13.0,78,0.00,,,0.15,Wunderground v.1.13,2013-05-19 16:57:00,
2013-05-19 11:58:00,71.4,63.8,29.59,SE,126,10.0,13.0,77,0.00,,,0.15,Wunderground v.1.13,2013-05-19 16:58:00,
2013-05-19 11:59:00,71.6,64.0,29.60,ESE,122,9.0,13.0,77,0.00,,,0.15,Wunderground v.1.13,2013-05-19 16:59:00,
2013-05-19 12:02:00,71.6,63.6,29.60,ESE,113,8.0,9.0,76,0.00,,,0.15,Wunderground v.1.13,2013-05-19 17:02:00,
2013-05-19 12:03:00,71.6,63.6,29.60,SE,136,8.0,9.0,76,0.00,,,0.15,Wunderground v.1.13,2013-05-19 17:03:00,
2013-05-19 12:05:00,71.7,64.1,29.60,SE,125,8.0,8.0,77,0.00,,,0.15,Wunderground v.1.13,2013-05-19 17:05:00,
2013-05-19 12:06:00,71.9,63.9,29.60,ESE,123,8.0,10.0,76,0.00,,,0.15,Wunderground v.1.13,2013-05-19 17:06:00,
2013-05-19 12:09:00,72.0,64.0,29.59,ESE,121,8.0,10.0,76,0.00,,,0.15,Wunderground v.1.13,2013-05-19 17:09:00,
2013-05-19 12:10:00,72.1,63.7,29.59,SE,126,8.0,8.0,75,0.00,,,0.15,Wunderground v.1.13,2013-05-19 17:10:00,
2013-05-19 12:14:00,72.5,63.4,29.60,ESE,119,9.0,19.0,73,0.00,,,0.15,Wunderground v.1.13,2013-05-19 17:14:00,
2013-05-19 12:16:00,72.3,63.5,29.60,ESE,122,11.0,15.0,74,0.00,,,0.15,Wunderground v.1.13,2013-05-19 17:16:00,
2013-05-19 12:18:00,72.4,63.6,29.60,ESE,122,11.0,15.0,74,0.00,,,0.15,Wunderground v.1.13,2013-05-19 17:18:00,
2013-05-19 12:19:00,72.4,63.3,29.60,SE,128,11.0,15.0,73,0.00,,,0.15,Wunderground v.1.13,2013-05-19 17:19:00,
2013-05-19 12:20:00,72.5,63.7,29.60,SE,126,11.0,14.0,74,0.00,,,0.15,Wunderground v.1.13,2013-05-19 17:20:00,
2013-05-19 12:21:00,72.6,63.8,29.60,SE,130,11.0,14.0,74,0.00,,,0.15,Wunderground v.1.13,2013-05-19 17:21:00,
2013-05-19 12:22:00,72.8,64.0,29.60,SSE,159,11.0,14.0,74,0.00,,,0.15,Wunderground v.1.13,2013-05-19 17:22:00,
2013-05-19 12:25:00,73.4,63.8,29.60,ESE,121,9.0,9.0,72,0.00,,,0.15,Wunderground v.1.13,2013-05-19 17:25:00,
2013-05-19 12:26:00,73.3,63.7,29.60,ESE,121,8.0,9.0,72,0.00,,,0.15,Wunderground v.1.13,2013-05-19 17:26:00,
2013-05-19 12:28:00,73.2,63.6,29.60,SE,132,8.0,12.0,72,0.00,,,0.15,Wunderground v.1.13,2013-05-19 17:28:00,
2013-05-19 12:29:00,73.1,63.5,29.61,ESE,121,8.0,12.0,72,0.00,,,0.15,Wunderground v.1.13,2013-05-19 17:29:00,
2013-05-19 12:30:00,72.9,63.7,29.61,ESE,118,8.0,10.0,73,0.00,,,0.15,Wunderground v.1.13,2013-05-19 17:30:00,
2013-05-19 12:33:00,72.9,63.7,29.61,SE,125,9.0,10.0,73,0.00,,,0.15,Wunderground v.1.13,2013-05-19 17:33:00,
2013-05-19 12:34:00,73.0,63.8,29.61,SSW,211,9.0,10.0,73,0.00,,,0.15,Wunderground v.1.13,2013-05-19 17:34:00,
2013-05-19 12:35:00,73.2,64.8,29.61,SE,130,9.0,9.0,75,0.00,,,0.15,Wunderground v.1.13,2013-05-19 17:35:00,
2013-05-19 12:36:00,73.3,63.7,29.61,South,190,8.0,9.0,72,0.00,,,0.15,Wunderground v.1.13,2013-05-19 17:36:00,
2013-05-19 12:37:00,73.5,63.9,29.61,South,172,8.0,9.0,72,0.00,,,0.15,Wunderground v.1.13,2013-05-19 17:37:00,
2013-05-19 12:40:00,74.0,64.0,29.60,WSW,250,7.0,9.0,71,0.00,,,0.15,Wunderground v.1.13,2013-05-19 17:40:00,
2013-05-19 12:42:00,74.4,64.0,29.60,South,186,6.0,9.0,70,0.00,,,0.15,Wunderground v.1.13,2013-05-19 17:42:00,
2013-05-19 12:44:00,74.7,64.3,29.60,ESE,113,5.0,9.0,70,0.00,,,0.15,Wunderground v.1.13,2013-05-19 17:44:00,
2013-05-19 12:45:00,74.9,64.5,29.60,SW,229,5.0,5.0,70,0.00,,,0.15,Wunderground v.1.13,2013-05-19 17:45:00,
2013-05-19 12:50:00,75.3,64.0,29.59,SE,142,5.0,5.0,68,0.00,,,0.15,Wunderground v.1.13,2013-05-19 17:50:00,
2013-05-19 12:52:00,75.3,64.0,29.59,SE,136,5.0,10.0,68,0.00,,,0.15,Wunderground v.1.13,2013-05-19 17:52:00,
2013-05-19 12:54:00,75.4,64.1,29.59,SSE,159,6.0,10.0,68,0.00,,,0.15,Wunderground v.1.13,2013-05-19 17:54:00,
2013-05-19 12:55:00,75.6,65.1,29.59,SE,144,6.0,9.0,70,0.00,,,0.15,Wunderground v.1.13,2013-05-19 17:55:00,
2013-05-19 12:56:00,75.7,64.4,29.59,ESE,121,6.0,14.0,68,0.00,,,0.15,Wunderground v.1.13,2013-05-19 17:56:00,
2013-05-19 12:57:00,75.7,64.0,29.59,SE,125,6.0,14.0,67,0.00,,,0.15,Wunderground v.1.13,2013-05-19 17:57:00,
2013-05-19 13:00:00,75.1,63.4,29.59,SSE,148,8.0,8.0,67,0.00,,,0.15,Wunderground v.1.13,2013-05-19 18:00:00,
2013-05-19 13:02:00,75.3,64.4,29.59,SW,223,7.0,8.0,69,0.00,,,0.15,Wunderground v.1.13,2013-05-19 18:02:00,
2013-05-19 13:03:00,75.5,64.2,29.60,SE,128,7.0,8.0,68,0.00,,,0.15,Wunderground v.1.13,2013-05-19 18:03:00,
2013-05-19 13:04:00,75.6,64.3,29.60,SSE,148,7.0,8.0,68,0.00,,,0.15,Wunderground v.1.13,2013-05-19 18:04:00,
2013-05-19 13:08:00,75.9,64.2,29.59,SE,128,5.0,7.0,67,0.00,,,0.15,Wunderground v.1.13,2013-05-19 18:08:00,
2013-05-19 13:10:00,76.1,64.8,29.59,SSE,167,4.0,4.0,68,0.00,,,0.15,Wunderground v.1.13,2013-05-19 18:10:00,
2013-05-19 13:11:00,76.2,64.4,29.59,SSW,212,4.0,7.0,67,0.00,,,0.15,Wunderground v.1.13,2013-05-19 18:11:00,
2013-05-19 13:17:00,76.3,64.1,29.59,ESE,113,5.0,7.0,66,0.00,,,0.15,Wunderground v.1.13,2013-05-19 18:17:00,
2013-05-19 13:18:00,76.4,64.6,29.59,SSE,163,5.0,7.0,67,0.00,,,0.15,Wunderground v.1.13,2013-05-19 18:18:00,
2013-05-19 13:20:00,76.6,64.8,29.59,ESE,122,5.0,5.0,67,0.00,,,0.15,Wunderground v.1.13,2013-05-19 18:20:00,
2013-05-19 13:22:00,76.9,64.2,29.59,South,186,5.0,8.0,65,0.00,,,0.15,Wunderground v.1.13,2013-05-19 18:22:00,
2013-05-19 13:23:00,76.9,64.2,29.59,SE,128,5.0,8.0,65,0.00,,,0.15,Wunderground v.1.13,2013-05-19 18:23:00,
2013-05-19 13:25:00,76.9,63.8,29.59,ESE,115,5.0,8.0,64,0.00,,,0.15,Wunderground v.1.13,2013-05-19 18:25:00,
2013-05-19 13:30:00,76.6,64.0,29.58,SE,128,7.0,7.0,65,0.00,,,0.15,Wunderground v.1.13,2013-05-19 18:30:00,
2013-05-19 13:33:00,76.8,64.6,29.58,SE,135,6.0,7.0,66,0.00,,,0.15,Wunderground v.1.13,2013-05-19 18:33:00,
2013-05-19 13:34:00,77.0,64.8,29.58,South,174,5.0,7.0,66,0.00,,,0.15,Wunderground v.1.13,2013-05-19 18:34:00,
2013-05-19 13:36:00,77.2,64.1,29.58,SE,124,5.0,8.0,64,0.00,,,0.15,Wunderground v.1.13,2013-05-19 18:36:00,
2013-05-19 13:38:00,77.2,64.5,29.58,South,189,4.0,8.0,65,0.00,,,0.15,Wunderground v.1.13,2013-05-19 18:38:00,
2013-05-19 13:39:00,77.2,64.5,29.58,ESE,113,4.0,8.0,65,0.00,,,0.15,Wunderground v.1.13,2013-05-19 18:39:00,
2013-05-19 13:40:00,77.1,64.0,29.58,ESE,119,4.0,6.0,64,0.00,,,0.15,Wunderground v.1.13,2013-05-19 18:40:00,
2013-05-19 13:42:00,76.8,64.1,29.58,ESE,123,4.0,8.0,65,0.00,,,0.15,Wunderground v.1.13,2013-05-19 18:42:00,
2013-05-19 13:46:00,76.2,64.0,29.58,ESE,119,5.0,7.0,66,0.00,,,0.15,Wunderground v.1.13,2013-05-19 18:46:00,
2013-05-19 13:47:00,76.0,63.8,29.58,SE,126,6.0,12.0,66,0.00,,,0.15,Wunderground v.1.13,2013-05-19 18:47:00,
2013-05-19 13:48:00,75.8,64.1,29.58,ESE,115,6.0,12.0,67,0.00,,,0.15,Wunderground v.1.13,2013-05-19 18:48:00,
2013-05-19 13:52:00,75.8,64.5,29.58,ESE,111,7.0,7.0,68,0.00,,,0.15,Wunderground v.1.13,2013-05-19 18:52:00,
2013-05-19 13:53:00,75.8,64.1,29.58,ESE,111,7.0,7.0,67,0.00,,,0.15,Wunderground v.1.13,2013-05-19 18:53:00,
2013-05-19 13:54:00,75.9,64.6,29.58,East,101,6.0,7.0,68,0.00,,,0.15,Wunderground v.1.13,2013-05-19 18:54:00,
2013-05-19 13:57:00,76.0,64.2,29.58,SE,130,6.0,8.0,67,0.00,,,0.15,Wunderground v.1.13,2013-05-19 18:57:00,
2013-05-19 13:59:00,76.0,64.2,29.58,ESE,121,5.0,9.0,67,0.00,,,0.15,Wunderground v.1.13,2013-05-19 18:59:00,
2013-05-19 14:01:00,76.0,64.7,29.58,ESE,121,5.0,6.0,68,0.00,,,0.15,Wunderground v.1.13,2013-05-19 19:01:00,
2013-05-19 14:02:00,76.0,64.2,29.57,SE,128,5.0,7.0,67,0.00,,,0.15,Wunderground v.1.13,2013-05-19 19:02:00,
2013-05-19 14:05:00,75.8,64.5,29.57,SE,124,5.0,7.0,68,0.00,,,0.15,Wunderground v.1.13,2013-05-19 19:05:00,
2013-05-19 14:06:00,75.9,64.6,29.57,ESE,119,6.0,9.0,68,0.00,,,0.15,Wunderground v.1.13,2013-05-19 19:06:00,
2013-05-19 14:11:00,76.0,64.2,29.57,ESE,107,7.0,7.0,67,0.00,,,0.15,Wunderground v.1.13,2013-05-19 19:11:00,
2013-05-19 14:12:00,76.0,64.2,29.57,ESE,105,7.0,7.0,67,0.00,,,0.15,Wunderground v.1.13,2013-05-19 19:12:00,
2013-05-19 14:13:00,76.0,64.7,29.57,SE,127,7.0,9.0,68,0.00,,,0.15,Wunderground v.1.13,2013-05-19 19:13:00,
2013-05-19 14:15:00,76.1,64.3,29.57,ESE,117,7.0,7.0,67,0.00,,,0.15,Wunderground v.1.13,2013-05-19 19:15:00,
2013-05-19 14:17:00,76.1,64.8,29.57,SE,125,7.0,9.0,68,0.00,,,0.15,Wunderground v.1.13,2013-05-19 19:17:00,
2013-05-19 14:21:00,76.1,64.3,29.57,ESE,115,6.0,7.0,67,0.00,,,0.15,Wunderground v.1.13,2013-05-19 19:21:00,
2013-05-19 14:22:00,76.0,64.2,29.57,ESE,106,6.0,7.0,67,0.00,,,0.15,Wunderground v.1.13,2013-05-19 19:22:00,
2013-05-19 14:24:00,75.9,64.6,29.57,ESE,115,6.0,10.0,68,0.00,,,0.15,Wunderground v.1.13,2013-05-19 19:24:00,
2013-05-19 14:25:00,75.8,64.5,29.57,ESE,123,7.0,9.0,68,0.00,,,0.15,Wunderground v.1.13,2013-05-19 19:25:00,
2013-05-19 14:27:00,75.9,64.6,29.57,SSW,213,7.0,9.0,68,0.00,,,0.15,Wunderground v.1.13,2013-05-19 19:27:00,
2013-05-19 14:30:00,76.2,64.4,29.57,SE,124,7.0,7.0,67,0.00,,,0.15,Wunderground v.1.13,2013-05-19 19:30:00,
2013-05-19 14:31:00,76.2,64.4,29.57,ESE,114,7.0,7.0,67,0.00,,,0.15,Wunderground v.1.13,2013-05-19 19:31:00,
2013-05-19 14:33:00,76.5,64.7,29.57,SE,124,7.0,7.0,67,0.00,,,0.15,Wunderground v.1.13,2013-05-19 19:33:00,
2013-05-19 14:34:00,76.6,64.8,29.57,SE,130,7.0,10.0,67,0.00,,,0.15,Wunderground v.1.13,2013-05-19 19:34:00,
2013-05-19 14:36:00,76.8,64.6,29.57,ESE,113,6.0,13.0,66,0.00,,,0.15,Wunderground v.1.13,2013-05-19 19:36:00,
2013-05-19 14:37:00,76.9,64.7,29.56,SE,139,7.0,13.0,66,0.00,,,0.15,Wunderground v.1.13,2013-05-19 19:37:00,
2013-05-19 14:41:00,77.0,64.3,29.56,SE,140,7.0,8.0,65,0.00,,,0.15,Wunderground v.1.13,2013-05-19 19:41:00,
2013-05-19 14:42:00,77.2,64.1,29.56,ESE,121,8.0,8.0,64,0.00,,,0.15,Wunderground v.1.13,2013-05-19 19:42:00,
2013-05-19 14:43:00,77.3,64.6,29.56,ESE,119,7.0,9.0,65,0.00,,,0.15,Wunderground v.1.13,2013-05-19 19:43:00,
2013-05-19 14:45:00,77.3,65.1,29.56,SE,126,8.0,8.0,66,0.00,,,0.15,Wunderground v.1.13,2013-05-19 19:45:00,
2013-05-19 14:46:00,77.3,64.6,29.56,SW,229,8.0,8.0,65,0.00,,,0.15,Wunderground v.1.13,2013-05-19 19:46:00,
2013-05-19 14:49:00,77.5,64.4,29.56,SE,130,7.0,10.0,64,0.00,,,0.15,Wunderground v.1.13,2013-05-19 19:49:00,
2013-05-19 14:51:00,77.5,64.4,29.56,SE,130,7.0,8.0,64,0.00,,,0.15,Wunderground v.1.13,2013-05-19 19:51:00,
2013-05-19 14:52:00,77.5,63.9,29.56,SE,138,8.0,8.0,63,0.00,,,0.15,Wunderground v.1.13,2013-05-19 19:52:00,
2013-05-19 14:53:00,77.6,64.5,29.55,ESE,123,8.0,10.0,64,0.00,,,0.15,Wunderground v.1.13,2013-05-19 19:53:00,
2013-05-19 14:55:00,77.8,64.2,29.55,ESE,110,8.0,12.0,63,0.00,,,0.15,Wunderground v.1.13,2013-05-19 19:55:00,
2013-05-19 14:56:00,77.8,64.2,29.56,ESE,117,9.0,12.0,63,0.00,,,0.15,Wunderground v.1.13,2013-05-19 19:56:00,
2013-05-19 15:01:00,77.6,64.5,29.55,ESE,121,10.0,10.0,64,0.00,,,0.15,Wunderground v.1.13,2013-05-19 20:01:00,
2013-05-19 15:02:00,77.5,63.9,29.55,SE,139,10.0,10.0,63,0.00,,,0.15,Wunderground v.1.13,2013-05-19 20:02:00,
2013-05-19 15:03:00,77.6,64.0,29.55,ESE,123,10.0,10.0,63,0.00,,,0.15,Wunderground v.1.13,2013-05-19 20:03:00,
2013-05-19 15:06:00,77.8,64.2,29.55,ESE,123,9.0,10.0,63,0.00,,,0.15,Wunderground v.1.13,2013-05-19 20:06:00,
2013-05-19 15:08:00,77.9,63.8,29.55,ESE,115,9.0,10.0,62,0.00,,,0.15,Wunderground v.1.13,2013-05-19 20:08:00,
2013-05-19 15:09:00,77.9,63.8,29.55,ESE,110,9.0,10.0,62,0.00,,,0.15,Wunderground v.1.13,2013-05-19 20:09:00,
2013-05-19 15:14:00,77.8,63.3,29.55,ESE,123,9.0,13.0,61,0.00,,,0.15,Wunderground v.1.13,2013-05-19 20:14:00,
2013-05-19 15:15:00,77.9,63.4,29.55,SE,126,9.0,9.0,61,0.00,,,0.15,Wunderground v.1.13,2013-05-19 20:15:00,
2013-05-19 15:18:00,78.0,63.9,29.54,ESE,122,9.0,10.0,62,0.00,,,0.15,Wunderground v.1.13,2013-05-19 20:18:00,
2013-05-19 15:21:00,78.6,64.0,29.54,SW,214,7.0,8.0,61,0.00,,,0.15,Wunderground v.1.13,2013-05-19 20:21:00,
2013-05-19 15:22:00,79.1,63.5,29.54,SSW,205,7.0,8.0,59,0.00,,,0.15,Wunderground v.1.13,2013-05-19 20:22:00,
2013-05-19 15:23:00,79.3,64.7,29.54,SSW,194,6.0,8.0,61,0.00,,,0.15,Wunderground v.1.13,2013-05-19 20:23:00,
2013-05-19 15:26:00,80.0,62.4,29.54,SE,133,4.0,5.0,55,0.00,,,0.15,Wunderground v.1.13,2013-05-19 20:26:00,
2013-05-19 15:28:00,80.0,62.4,29.54,ESE,118,4.0,7.0,55,0.00,,,0.15,Wunderground v.1.13,2013-05-19 20:28:00,
2013-05-19 15:29:00,79.7,62.1,29.54,SE,137,4.0,11.0,55,0.00,,,0.15,Wunderground v.1.13,2013-05-19 20:29:00,
2013-05-19 15:31:00,79.7,62.1,29.54,ESE,119,5.0,8.0,55,0.00,,,0.15,Wunderground v.1.13,2013-05-19 20:31:00,
2013-05-19 15:32:00,79.7,62.6,29.54,ESE,122,5.0,8.0,56,0.00,,,0.15,Wunderground v.1.13,2013-05-19 20:32:00,
2013-05-19 15:34:00,79.5,62.4,29.54,ESE,117,6.0,10.0,56,0.00,,,0.15,Wunderground v.1.13,2013-05-19 20:34:00,
2013-05-19 15:35:00,79.4,62.3,29.54,ESE,107,6.0,10.0,56,0.00,,,0.15,Wunderground v.1.13,2013-05-19 20:35:00,
2013-05-19 15:38:00,79.1,62.1,29.54,SE,131,7.0,14.0,56,0.00,,,0.15,Wunderground v.1.13,2013-05-19 20:38:00,
2013-05-19 15:41:00,78.8,62.3,29.54,ESE,118,8.0,12.0,57,0.00,,,0.15,Wunderground v.1.13,2013-05-19 20:41:00,
2013-05-19 15:42:00,78.7,62.2,29.54,SE,127,8.0,12.0,57,0.00,,,0.15,Wunderground v.1.13,2013-05-19 20:42:00,
2013-05-19 15:43:00,78.8,62.8,29.54,South,176,8.0,12.0,58,0.00,,,0.15,Wunderground v.1.13,2013-05-19 20:43:00,
2013-05-19 15:46:00,79.5,62.9,29.54,SSW,207,7.0,7.0,57,0.00,,,0.15,Wunderground v.1.13,2013-05-19 20:46:00,
2013-05-19 15:49:00,80.4,63.3,29.54,WSW,251,5.0,7.0,56,0.00,,,0.15,Wunderground v.1.13,2013-05-19 20:49:00,
2013-05-19 15:50:00,80.6,62.9,29.54,WSW,247,5.0,5.0,55,0.00,,,0.15,Wunderground v.1.13,2013-05-19 20:50:00,
2013-05-19 15:52:00,81.0,62.8,29.54,SE,129,3.0,7.0,54,0.00,,,0.15,Wunderground v.1.13,2013-05-19 20:52:00,
2013-05-19 15:55:00,80.1,62.0,29.54,ESE,123,4.0,4.0,54,0.00,,,0.15,Wunderground v.1.13,2013-05-19 20:55:00,
2013-05-19 15:56:00,79.8,62.2,29.54,ESE,123,4.0,5.0,55,0.00,,,0.15,Wunderground v.1.13,2013-05-19 20:56:00,
2013-05-19 15:57:00,79.6,62.5,29.54,ESE,123,4.0,5.0,56,0.00,,,0.15,Wunderground v.1.13,2013-05-19 20:57:00,
2013-05-19 16:02:00,79.1,62.6,29.54,ESE,122,5.0,7.0,57,0.00,,,0.15,Wunderground v.1.13,2013-05-19 21:02:00,
2013-05-19 16:03:00,79.1,63.1,29.54,ESE,123,5.0,7.0,58,0.00,,,0.15,Wunderground v.1.13,2013-05-19 21:03:00,
2013-05-19 16:08:00,79.3,62.7,29.54,SE,126,3.0,6.0,57,0.00,,,0.15,Wunderground v.1.13,2013-05-19 21:08:00,
2013-05-19 16:09:00,79.3,62.7,29.54,SE,133,3.0,6.0,57,0.00,,,0.15,Wunderground v.1.13,2013-05-19 21:09:00,
2013-05-19 16:15:00,79.3,63.2,29.54,South,175,2.0,2.0,58,0.00,,,0.15,Wunderground v.1.13,2013-05-19 21:15:00,
2013-05-19 16:16:00,79.3,63.2,29.54,South,175,2.0,2.0,58,0.00,,,0.15,Wunderground v.1.13,2013-05-19 21:16:00,
2013-05-19 16:18:00,79.3,62.7,29.54,South,172,2.0,4.0,57,0.00,,,0.15,Wunderground v.1.13,2013-05-19 21:18:00,
2013-05-19 16:19:00,79.3,62.7,29.54,South,178,1.0,4.0,57,0.00,,,0.15,Wunderground v.1.13,2013-05-19 21:19:00,
2013-05-19 16:21:00,79.4,62.8,29.53,South,178,1.0,1.0,57,0.00,,,0.15,Wunderground v.1.13,2013-05-19 21:21:00,
2013-05-19 16:23:00,79.4,63.3,29.53,South,178,0.0,1.0,58,0.00,,,0.15,Wunderground v.1.13,2013-05-19 21:23:00,
2013-05-19 16:24:00,79.4,63.3,29.53,South,178,0.0,1.0,58,0.00,,,0.15,Wunderground v.1.13,2013-05-19 21:24:00,
2013-05-19 16:26:00,79.5,63.9,29.53,South,178,0.0,0.0,59,0.00,,,0.15,Wunderground v.1.13,2013-05-19 21:26:00,
2013-05-19 16:27:00,79.5,63.9,29.53,South,178,0.0,0.0,59,0.00,,,0.15,Wunderground v.1.13,2013-05-19 21:27:00,
2013-05-19 16:29:00,79.4,64.8,29.53,South,178,0.0,6.0,61,0.00,,,0.16,Wunderground v.1.13,2013-05-19 21:29:00,
2013-05-19 16:31:00,79.1,65.0,29.54,South,178,0.0,0.0,62,0.00,,,0.16,Wunderground v.1.13,2013-05-19 21:31:00,
2013-05-19 16:35:00,77.5,65.2,29.57,ESE,108,1.0,10.0,66,0.56,,,0.19,Wunderground v.1.13,2013-05-19 21:35:00,
2013-05-19 16:36:00,76.0,63.4,29.58,SE,135,2.0,20.0,65,4.00,,,0.22,Wunderground v.1.13,2013-05-19 21:36:00,
2013-05-19 16:37:00,73.7,61.6,29.57,SE,140,4.0,25.0,66,2.02,,,0.25,Wunderground v.1.13,2013-05-19 21:37:00,
2013-05-19 16:39:00,70.2,60.7,29.57,ESE,102,7.0,25.0,72,5.28,,,0.34,Wunderground v.1.13,2013-05-19 21:39:00,
2013-05-19 16:40:00,68.3,59.3,29.57,NE,44,9.0,20.0,73,2.52,,,0.46,Wunderground v.1.13,2013-05-19 21:40:00,
2013-05-19 16:43:00,66.5,59.8,29.57,SW,214,12.0,20.0,79,1.41,,,0.53,Wunderground v.1.13,2013-05-19 21:43:00,
2013-05-19 16:44:00,66.2,59.8,29.56,SSW,198,13.0,20.0,80,1.98,,,0.56,Wunderground v.1.13,2013-05-19 21:44:00,
2013-05-19 16:45:00,65.9,59.9,29.56,SSW,198,12.0,12.0,81,1.20,,,0.58,Wunderground v.1.13,2013-05-19 21:45:00,
2013-05-19 16:46:00,65.7,60.1,29.57,SE,137,11.0,12.0,82,0.94,,,0.60,Wunderground v.1.13,2013-05-19 21:46:00,
2013-05-19 16:49:00,65.1,60.1,29.57,ENE,59,8.0,12.0,84,0.25,,,0.61,Wunderground v.1.13,2013-05-19 21:49:00,
2013-05-19 16:51:00,64.9,60.3,29.57,ESE,114,5.0,6.0,85,0.30,,,0.62,Wunderground v.1.13,2013-05-19 21:51:00,
2013-05-19 16:53:00,64.6,60.3,29.57,ESE,121,4.0,9.0,86,0.37,,,0.63,Wunderground v.1.13,2013-05-19 21:53:00,
2013-05-19 16:55:00,64.5,60.2,29.57,East,95,5.0,5.0,86,0.33,,,0.64,Wunderground v.1.13,2013-05-19 21:55:00,
2013-05-19 16:58:00,64.2,60.2,29.57,NE,46,5.0,7.0,87,0.17,,,0.65,Wunderground v.1.13,2013-05-19 21:58:00,
2013-05-19 16:59:00,64.2,60.2,29.57,NE,44,6.0,7.0,87,0.17,,,0.65,Wunderground v.1.13,2013-05-19 21:59:00,
2013-05-19 17:00:00,64.1,60.5,29.56,NNE,33,6.0,9.0,88,0.17,,,0.65,Wunderground v.1.13,2013-05-19 22:00:00,
2013-05-19 17:04:00,64.0,60.7,29.56,NNE,25,6.0,9.0,89,0.16,,,0.66,Wunderground v.1.13,2013-05-19 22:04:00,
2013-05-19 17:05:00,64.0,60.7,29.56,NNE,30,7.0,7.0,89,0.14,,,0.66,Wunderground v.1.13,2013-05-19 22:05:00,
2013-05-19 17:07:00,64.0,61.0,29.56,NNE,19,7.0,9.0,90,0.13,,,0.67,Wunderground v.1.13,2013-05-19 22:07:00,
2013-05-19 17:09:00,64.0,61.0,29.55,North,360,7.0,9.0,90,0.13,,,0.67,Wunderground v.1.13,2013-05-19 22:09:00,
2013-05-19 17:13:00,64.3,61.6,29.54,NNE,22,6.0,7.0,91,0.08,,,0.67,Wunderground v.1.13,2013-05-19 22:13:00,
2013-05-19 17:15:00,64.3,61.6,29.54,North,355,6.0,6.0,91,0.06,,,0.67,Wunderground v.1.13,2013-05-19 22:15:00,
2013-05-19 17:16:00,64.4,61.7,29.54,North,355,5.0,6.0,91,0.06,,,0.67,Wunderground v.1.13,2013-05-19 22:16:00,
2013-05-19 17:17:00,64.4,61.7,29.54,North,360,5.0,6.0,91,0.05,,,0.67,Wunderground v.1.13,2013-05-19 22:17:00,
2013-05-19 17:22:00,64.5,61.8,29.53,North,355,4.0,5.0,91,0.04,,,0.67,Wunderground v.1.13,2013-05-19 22:22:00,
2013-05-19 17:23:00,64.5,62.1,29.53,North,360,4.0,5.0,92,0.00,,,0.67,Wunderground v.1.13,2013-05-19 22:23:00,
2013-05-19 17:24:00,64.5,62.1,29.53,North,360,4.0,5.0,92,0.00,,,0.67,Wunderground v.1.13,2013-05-19 22:24:00,
2013-05-19 17:25:00,64.5,62.1,29.53,North,360,4.0,4.0,92,0.00,,,0.67,Wunderground v.1.13,2013-05-19 22:25:00,
2013-05-19 17:27:00,64.5,62.1,29.53,North,360,4.0,4.0,92,0.00,,,0.67,Wunderground v.1.13,2013-05-19 22:27:00,
2013-05-19 17:28:00,64.5,62.1,29.53,North,360,4.0,4.0,92,0.00,,,0.67,Wunderground v.1.13,2013-05-19 22:28:00,
2013-05-19 17:31:00,64.5,62.1,29.53,North,360,3.0,3.0,92,0.00,,,0.67,Wunderground v.1.13,2013-05-19 22:31:00,
2013-05-19 17:33:00,64.5,62.1,29.53,North,360,2.0,3.0,92,0.00,,,0.67,Wunderground v.1.13,2013-05-19 22:33:00,
2013-05-19 17:34:00,64.5,62.1,29.53,North,360,2.0,3.0,92,0.00,,,0.67,Wunderground v.1.13,2013-05-19 22:34:00,
2013-05-19 17:37:00,64.5,62.1,29.52,North,360,1.0,2.0,92,0.00,,,0.67,Wunderground v.1.13,2013-05-19 22:37:00,
2013-05-19 17:38:00,64.5,62.1,29.53,North,360,1.0,2.0,92,0.00,,,0.67,Wunderground v.1.13,2013-05-19 22:38:00,
2013-05-19 17:39:00,64.5,62.1,29.53,North,360,1.0,2.0,92,0.00,,,0.67,Wunderground v.1.13,2013-05-19 22:39:00,
2013-05-19 17:40:00,64.5,62.1,29.53,North,360,1.0,1.0,92,0.00,,,0.68,Wunderground v.1.13,2013-05-19 22:40:00,
2013-05-19 20:01:00,61.5,59.8,29.54,North,360,6.0,6.0,94,0.00,,,1.28,Wunderground v.1.13,2013-05-20 01:01:00,
2013-05-19 20:02:00,61.5,59.8,29.54,East,91,5.0,5.0,94,0.00,,,1.28,Wunderground v.1.13,2013-05-20 01:02:00,
2013-05-19 20:03:00,61.5,59.8,29.54,ESE,103,5.0,5.0,94,0.00,,,1.28,Wunderground v.1.13,2013-05-20 01:03:00,
2013-05-19 20:08:00,61.5,59.8,29.53,East,101,6.0,7.0,94,0.00,,,1.28,Wunderground v.1.13,2013-05-20 01:08:00,
2013-05-19 20:09:00,61.5,59.8,29.53,ESE,102,5.0,5.0,94,0.00,,,1.28,Wunderground v.1.13,2013-05-20 01:09:00,
2013-05-19 20:12:00,61.5,59.8,29.53,ESE,102,5.0,5.0,94,0.00,,,1.29,Wunderground v.1.13,2013-05-20 01:12:00,
2013-05-19 20:13:00,61.5,59.8,29.53,ESE,102,4.0,5.0,94,0.00,,,1.29,Wunderground v.1.13,2013-05-20 01:13:00,
2013-05-19 20:14:00,61.5,59.8,29.54,ESE,102,4.0,4.0,94,0.00,,,1.29,Wunderground v.1.13,2013-05-20 01:14:00,
2013-05-19 20:18:00,61.5,59.8,29.53,ESE,105,4.0,5.0,94,0.00,,,1.29,Wunderground v.1.13,2013-05-20 01:18:00,
2013-05-19 20:19:00,61.5,59.8,29.53,ESE,105,4.0,4.0,94,0.00,,,1.29,Wunderground v.1.13,2013-05-20 01:19:00,
2013-05-19 20:22:00,61.5,59.8,29.53,ESE,104,4.0,5.0,94,0.00,,,1.29,Wunderground v.1.13,2013-05-20 01:22:00,
2013-05-19 20:23:00,61.5,59.8,29.54,ESE,105,4.0,5.0,94,0.00,,,1.29,Wunderground v.1.13,2013-05-20 01:23:00,
2013-05-19 20:25:00,61.5,59.8,29.54,ESE,103,4.0,4.0,94,0.00,,,1.29,Wunderground v.1.13,2013-05-20 01:25:00,
2013-05-19 20:26:00,61.6,59.9,29.53,ESE,102,3.0,4.0,94,0.00,,,1.29,Wunderground v.1.13,2013-05-20 01:26:00,
2013-05-19 20:27:00,61.6,59.9,29.53,ENE,67,3.0,4.0,94,0.00,,,1.29,Wunderground v.1.13,2013-05-20 01:27:00,
2013-05-19 20:28:00,61.6,59.9,29.53,ENE,67,3.0,4.0,94,0.00,,,1.29,Wunderground v.1.13,2013-05-20 01:28:00,
2013-05-19 20:30:00,61.6,59.9,29.53,ENE,65,3.0,5.0,94,0.00,,,1.29,Wunderground v.1.13,2013-05-20 01:30:00,
2013-05-19 20:33:00,61.6,59.9,29.52,ENE,66,4.0,5.0,94,0.00,,,1.29,Wunderground v.1.13,2013-05-20 01:33:00,
2013-05-19 20:34:00,61.6,59.9,29.52,ENE,66,4.0,5.0,94,0.00,,,1.29,Wunderground v.1.13,2013-05-20 01:34:00,
2013-05-19 20:35:00,61.6,59.9,29.52,ENE,66,4.0,5.0,94,0.00,,,1.29,Wunderground v.1.13,2013-05-20 01:35:00,
2013-05-19 20:38:00,61.6,59.9,29.52,ENE,75,4.0,5.0,94,0.00,,,1.29,Wunderground v.1.13,2013-05-20 01:38:00,
2013-05-19 20:41:00,61.6,59.9,29.53,ENE,76,4.0,5.0,94,0.00,,,1.29,Wunderground v.1.13,2013-05-20 01:41:00,
2013-05-19 20:42:00,61.6,59.9,29.53,ENE,76,4.0,5.0,94,0.00,,,1.29,Wunderground v.1.13,2013-05-20 01:42:00,
2013-05-19 20:44:00,61.7,60.0,29.53,ENE,75,4.0,4.0,94,0.00,,,1.29,Wunderground v.1.13,2013-05-20 01:44:00,
2013-05-19 20:45:00,61.7,60.0,29.53,ENE,75,3.0,4.0,94,0.00,,,1.29,Wunderground v.1.13,2013-05-20 01:45:00,
2013-05-19 20:47:00,61.7,60.0,29.52,ENE,76,2.0,4.0,94,0.00,,,1.29,Wunderground v.1.13,2013-05-20 01:47:00,
2013-05-19 20:49:00,61.7,60.0,29.52,ENE,76,2.0,4.0,94,0.00,,,1.29,Wunderground v.1.13,2013-05-20 01:49:00,
2013-05-19 20:51:00,61.7,60.0,29.52,ENE,75,2.0,4.0,94,0.00,,,1.29,Wunderground v.1.13,2013-05-20 01:51:00,
2013-05-19 20:52:00,61.7,60.0,29.52,ENE,76,2.0,5.0,94,0.00,,,1.29,Wunderground v.1.13,2013-05-20 01:52:00,
2013-05-19 20:53:00,61.7,60.0,29.52,ENE,72,2.0,5.0,94,0.00,,,1.29,Wunderground v.1.13,2013-05-20 01:53:00,
2013-05-19 20:55:00,61.7,60.0,29.52,ENE,71,3.0,6.0,94,0.00,,,1.29,Wunderground v.1.13,2013-05-20 01:55:00,
2013-05-19 20:57:00,61.7,60.0,29.52,ENE,71,4.0,6.0,94,0.00,,,1.29,Wunderground v.1.13,2013-05-20 01:57:00,
2013-05-19 20:58:00,61.6,59.9,29.52,ENE,71,4.0,6.0,94,0.00,,,1.29,Wunderground v.1.13,2013-05-20 01:58:00,
2013-05-19 21:00:00,61.6,59.9,29.52,ENE,71,5.0,5.0,94,0.00,,,1.29,Wunderground v.1.13,2013-05-20 02:00:00,
2013-05-19 21:02:00,61.7,60.0,29.52,ENE,69,5.0,5.0,94,0.00,,,1.29,Wunderground v.1.13,2013-05-20 02:02:00,
2013-05-19 21:04:00,61.7,60.0,29.51,NE,44,5.0,6.0,94,0.00,,,1.29,Wunderground v.1.13,2013-05-20 02:04:00,
2013-05-19 21:06:00,61.7,60.0,29.51,NNE,30,5.0,7.0,94,0.00,,,1.29,Wunderground v.1.13,2013-05-20 02:06:00,
2013-05-19 21:08:00,61.7,60.3,29.51,NNE,32,5.0,7.0,95,0.00,,,1.29,Wunderground v.1.13,2013-05-20 02:08:00,
2013-05-19 21:11:00,61.7,60.3,29.51,NNE,26,5.0,5.0,95,0.00,,,1.29,Wunderground v.1.13,2013-05-20 02:11:00,
2013-05-19 21:12:00,61.8,60.4,29.51,NNE,26,5.0,5.0,95,0.00,,,1.29,Wunderground v.1.13,2013-05-20 02:12:00,
2013-05-19 21:13:00,61.8,60.4,29.51,NNE,26,5.0,5.0,95,0.00,,,1.29,Wunderground v.1.13,2013-05-20 02:13:00,
2013-05-19 21:17:00,61.8,60.4,29.51,North,360,5.0,7.0,95,0.00,,,1.29,Wunderground v.1.13,2013-05-20 02:17:00,
2013-05-19 21:18:00,61.8,60.4,29.51,North,9,5.0,7.0,95,0.00,,,1.29,Wunderground v.1.13,2013-05-20 02:18:00,
2013-05-19 21:19:00,61.8,60.4,29.51,NNE,29,5.0,7.0,95,0.00,,,1.29,Wunderground v.1.13,2013-05-20 02:19:00,
2013-05-19 21:20:00,61.8,60.4,29.52,NNE,29,5.0,5.0,95,0.00,,,1.29,Wunderground v.1.13,2013-05-20 02:20:00,
2013-05-19 21:21:00,61.8,60.4,29.52,NNE,30,5.0,5.0,95,0.00,,,1.29,Wunderground v.1.13,2013-05-20 02:21:00,
2013-05-19 21:24:00,61.8,60.4,29.52,NE,40,4.0,5.0,95,0.00,,,1.29,Wunderground v.1.13,2013-05-20 02:24:00,
2013-05-19 21:26:00,61.8,60.4,29.53,NE,40,4.0,4.0,95,0.00,,,1.29,Wunderground v.1.13,2013-05-20 02:26:00,
2013-05-19 21:27:00,61.8,60.4,29.53,NE,40,4.0,4.0,95,0.00,,,1.29,Wunderground v.1.13,2013-05-20 02:27:00,
2013-05-19 21:30:00,61.8,60.4,29.53,NE,44,4.0,4.0,95,0.00,,,1.29,Wunderground v.1.13,2013-05-20 02:30:00,
2013-05-19 21:31:00,61.8,60.4,29.53,NE,45,4.0,4.0,95,0.00,,,1.29,Wunderground v.1.13,2013-05-20 02:31:00,
2013-05-19 21:33:00,61.8,60.4,29.53,NE,51,4.0,4.0,95,0.00,,,1.29,Wunderground v.1.13,2013-05-20 02:33:00,
2013-05-19 21:36:00,61.8,60.4,29.54,NE,51,4.0,4.0,95,0.00,,,1.29,Wunderground v.1.13,2013-05-20 02:36:00,
2013-05-19 21:37:00,61.8,60.4,29.54,NE,51,3.0,4.0,95,0.00,,,1.29,Wunderground v.1.13,2013-05-20 02:37:00,
2013-05-19 21:42:00,61.8,60.4,29.55,NE,51,2.0,2.0,95,0.00,,,1.29,Wunderground v.1.13,2013-05-20 02:42:00,
2013-05-19 21:43:00,61.8,60.4,29.54,NE,51,1.0,2.0,95,0.00,,,1.29,Wunderground v.1.13,2013-05-20 02:43:00,
2013-05-19 21:46:00,61.8,60.4,29.54,NE,51,1.0,2.0,95,0.00,,,1.29,Wunderground v.1.13,2013-05-20 02:46:00,
2013-05-19 21:49:00,61.8,60.4,29.54,NE,51,1.0,2.0,95,0.00,,,1.29,Wunderground v.1.13,2013-05-20 02:49:00,
2013-05-19 21:50:00,61.8,60.4,29.54,NE,51,1.0,4.0,95,0.00,,,1.29,Wunderground v.1.13,2013-05-20 02:50:00,
2013-05-19 21:53:00,61.9,60.5,29.54,NE,51,2.0,4.0,95,0.00,,,1.29,Wunderground v.1.13,2013-05-20 02:53:00,
2013-05-19 21:55:00,61.9,60.5,29.54,NE,51,2.0,2.0,95,0.00,,,1.29,Wunderground v.1.13,2013-05-20 02:55:00,
2013-05-19 21:56:00,61.9,60.5,29.54,NE,51,2.0,2.0,95,0.00,,,1.29,Wunderground v.1.13,2013-05-20 02:56:00,
2013-05-19 21:57:00,61.9,60.5,29.54,NE,51,2.0,3.0,95,0.00,,,1.29,Wunderground v.1.13,2013-05-20 02:57:00,
2013-05-19 21:58:00,61.9,60.5,29.53,NE,51,2.0,3.0,95,0.00,,,1.29,Wunderground v.1.13,2013-05-20 02:58:00,
2013-05-19 21:59:00,62.0,60.6,29.53,NE,51,2.0,3.0,95,0.00,,,1.29,Wunderground v.1.13,2013-05-20 02:59:00,
2013-05-19 22:01:00,62.0,60.6,29.53,North,10,2.0,4.0,95,0.00,,,1.29,Wunderground v.1.13,2013-05-20 03:01:00,
2013-05-19 22:04:00,62.1,60.7,29.53,NE,46,3.0,6.0,95,0.00,,,1.29,Wunderground v.1.13,2013-05-20 03:04:00,
2013-05-19 22:06:00,62.1,60.7,29.53,NE,43,4.0,6.0,95,0.00,,,1.29,Wunderground v.1.13,2013-05-20 03:06:00,
2013-05-19 22:08:00,62.1,60.7,29.53,NE,40,5.0,6.0,95,0.00,,,1.29,Wunderground v.1.13,2013-05-20 03:08:00,
2013-05-19 22:13:00,62.1,60.7,29.53,NE,40,4.0,5.0,95,0.00,,,1.29,Wunderground v.1.13,2013-05-20 03:13:00,
2013-05-19 22:14:00,62.1,60.7,29.52,NE,40,3.0,5.0,95,0.00,,,1.29,Wunderground v.1.13,2013-05-20 03:14:00,
2013-05-19 22:16:00,62.1,60.7,29.53,NE,40,2.0,3.0,95,0.00,,,1.29,Wunderground v.1.13,2013-05-20 03:16:00,
2013-05-19 22:17:00,62.1,60.7,29.53,NE,40,2.0,3.0,95,0.00,,,1.29,Wunderground v.1.13,2013-05-20 03:17:00,
2013-05-19 22:18:00,62.1,60.7,29.52,NE,40,2.0,3.0,95,0.00,,,1.29,Wunderground v.1.13,2013-05-20 03:18:00,
2013-05-19 22:19:00,62.1,60.7,29.53,NE,40,1.0,3.0,95,0.00,,,1.29,Wunderground v.1.13,2013-05-20 03:19:00,
2013-05-19 22:22:00,62.1,60.7,29.52,NE,40,1.0,4.0,95,0.00,,,1.29,Wunderground v.1.13,2013-05-20 03:22:00,
2013-05-19 22:23:00,62.1,60.7,29.52,NE,37,1.0,4.0,95,0.00,,,1.29,Wunderground v.1.13,2013-05-20 03:23:00,
2013-05-19 22:24:00,62.1,60.7,29.52,NE,37,2.0,4.0,95,0.00,,,1.29,Wunderground v.1.13,2013-05-20 03:24:00,
2013-05-19 22:28:00,62.1,60.7,29.52,NNE,18,3.0,5.0,95,0.00,,,1.29,Wunderground v.1.13,2013-05-20 03:28:00,
2013-05-19 22:29:00,62.1,60.7,29.52,NNE,18,3.0,5.0,95,0.00,,,1.29,Wunderground v.1.13,2013-05-20 03:29:00,
2013-05-19 22:33:00,62.1,60.7,29.51,NNE,24,4.0,6.0,95,0.00,,,1.29,Wunderground v.1.13,2013-05-20 03:33:00,
2013-05-19 22:36:00,62.2,60.8,29.51,NNE,19,4.0,5.0,95,0.00,,,1.29,Wunderground v.1.13,2013-05-20 03:36:00,
2013-05-19 22:38:00,62.2,60.8,29.51,NNE,16,4.0,5.0,95,0.00,,,1.29,Wunderground v.1.13,2013-05-20 03:38:00,
2013-05-19 22:39:00,62.2,60.8,29.51,NNE,12,4.0,5.0,95,0.00,,,1.29,Wunderground v.1.13,2013-05-20 03:39:00,
2013-05-19 22:40:00,62.2,60.8,29.51,NNE,15,4.0,5.0,95,0.00,,,1.29,Wunderground v.1.13,2013-05-20 03:40:00,
2013-05-19 22:44:00,62.2,60.8,29.52,ENE,71,4.0,5.0,95,0.00,,,1.29,Wunderground v.1.13,2013-05-20 03:44:00,
2013-05-19 22:47:00,62.2,60.8,29.51,NE,45,5.0,7.0,95,0.00,,,1.29,Wunderground v.1.13,2013-05-20 03:47:00,
2013-05-19 22:48:00,62.2,60.8,29.51,NE,52,5.0,7.0,95,0.00,,,1.29,Wunderground v.1.13,2013-05-20 03:48:00,
2013-05-19 22:49:00,62.2,60.8,29.52,NE,52,5.0,7.0,95,0.00,,,1.29,Wunderground v.1.13,2013-05-20 03:49:00,
2013-05-19 22:51:00,62.2,60.8,29.51,ENE,65,5.0,6.0,95,0.00,,,1.29,Wunderground v.1.13,2013-05-20 03:51:00,
2013-05-19 22:55:00,62.1,60.7,29.52,North,9,6.0,6.0,95,0.00,,,1.29,Wunderground v.1.13,2013-05-20 03:55:00,
2013-05-19 22:57:00,61.8,60.4,29.52,North,10,6.0,7.0,95,0.00,,,1.29,Wunderground v.1.13,2013-05-20 03:57:00,
2013-05-19 22:59:00,61.2,59.5,29.52,NNE,18,7.0,12.0,94,0.00,,,1.29,Wunderground v.1.13,2013-05-20 03:59:00,
2013-05-19 23:01:00,60.7,59.0,29.52,NNW,330,7.0,9.0,94,0.00,,,1.29,Wunderground v.1.13,2013-05-20 04:01:00,
2013-05-19 23:02:00,60.5,58.8,29.51,NE,46,8.0,10.0,94,0.00,,,1.29,Wunderground v.1.13,2013-05-20 04:02:00,
2013-05-19 23:06:00,59.9,58.2,29.51,NNE,24,9.0,13.0,94,0.00,,,1.29,Wunderground v.1.13,2013-05-20 04:06:00,
2013-05-19 23:08:00,59.4,57.7,29.50,North,350,10.0,13.0,94,0.00,,,1.29,Wunderground v.1.13,2013-05-20 04:08:00,
2013-05-19 23:09:00,59.4,57.7,29.51,NNE,17,10.0,13.0,94,0.00,,,1.29,Wunderground v.1.13,2013-05-20 04:09:00,
2013-05-19 23:11:00,59.4,57.7,29.51,North,360,10.0,10.0,94,0.00,,,1.29,Wunderground v.1.13,2013-05-20 04:11:00,
2013-05-19 23:14:00,59.1,57.4,29.51,NNE,12,10.0,12.0,94,0.00,,,1.29,Wunderground v.1.13,2013-05-20 04:14:00,
2013-05-19 23:15:00,59.0,57.3,29.51,NNE,19,10.0,10.0,94,0.00,,,1.29,Wunderground v.1.13,2013-05-20 04:15:00,
2013-05-19 23:17:00,58.8,57.1,29.51,NNW,329,9.0,10.0,94,0.00,,,1.29,Wunderground v.1.13,2013-05-20 04:17:00,
2013-05-19 23:19:00,58.6,57.2,29.51,NNE,13,9.0,10.0,95,0.00,,,1.29,Wunderground v.1.13,2013-05-20 04:19:00,
2013-05-19 23:20:00,58.5,57.1,29.51,North,355,9.0,9.0,95,0.00,,,1.29,Wunderground v.1.13,2013-05-20 04:20:00,
2013-05-19 23:21:00,58.4,56.7,29.51,NE,42,9.0,11.0,94,0.00,,,1.29,Wunderground v.1.13,2013-05-20 04:21:00,
2013-05-19 23:22:00,58.4,56.7,29.51,NNE,32,9.0,14.0,94,0.00,,,1.29,Wunderground v.1.13,2013-05-20 04:22:00,
2013-05-19 23:23:00,58.3,56.6,29.51,NNE,26,9.0,14.0,94,0.00,,,1.29,Wunderground v.1.13,2013-05-20 04:23:00,
2013-05-19 23:26:00,58.1,56.7,29.51,NE,39,9.0,11.0,95,0.00,,,1.29,Wunderground v.1.13,2013-05-20 04:26:00,
2013-05-19 23:28:00,58.0,56.6,29.50,NE,48,10.0,11.0,95,0.00,,,1.29,Wunderground v.1.13,2013-05-20 04:28:00,
2013-05-19 23:29:00,57.9,56.5,29.51,NE,40,10.0,12.0,95,0.00,,,1.29,Wunderground v.1.13,2013-05-20 04:29:00,
2013-05-19 23:30:00,57.9,56.5,29.50,NNE,17,10.0,15.0,95,0.00,,,1.29,Wunderground v.1.13,2013-05-20 04:30:00,
2013-05-19 23:34:00,57.7,56.3,29.50,NE,42,11.0,15.0,95,0.00,,,1.29,Wunderground v.1.13,2013-05-20 04:34:00,
2013-05-19 23:36:00,57.6,56.2,29.51,NE,42,12.0,13.0,95,0.00,,,1.29,Wunderground v.1.13,2013-05-20 04:36:00,
2013-05-19 23:38:00,57.7,56.3,29.51,NE,46,12.0,13.0,95,0.00,,,1.29,Wunderground v.1.13,2013-05-20 04:38:00,
2013-05-19 23:39:00,57.7,56.3,29.51,NE,41,12.0,13.0,95,0.00,,,1.29,Wunderground v.1.13,2013-05-20 04:39:00,
2013-05-19 23:40:00,57.7,56.3,29.51,North,360,11.0,11.0,95,0.00,,,1.29,Wunderground v.1.13,2013-05-20 04:40:00,
2013-05-19 23:44:00,57.6,56.2,29.51,North,10,11.0,12.0,95,0.00,,,1.29,Wunderground v.1.13,2013-05-20 04:44:00,
2013-05-19 23:46:00,57.6,56.2,29.51,NE,36,10.0,11.0,95,0.00,,,1.29,Wunderground v.1.13,2013-05-20 04:46:00,
2013-05-19 23:48:00,57.5,56.1,29.51,NNE,12,10.0,11.0,95,0.00,,,1.29,Wunderground v.1.13,2013-05-20 04:48:00,
2013-05-19 23:50:00,57.5,56.1,29.51,NNE,17,10.0,10.0,95,0.00,,,1.29,Wunderground v.1.13,2013-05-20 04:50:00,
2013-05-19 23:52:00,57.5,56.1,29.51,NE,50,10.0,11.0,95,0.00,,,1.29,Wunderground v.1.13,2013-05-20 04:52:00,
2013-05-19 23:54:00,57.5,56.1,29.51,NE,34,10.0,11.0,95,0.00,,,1.29,Wunderground v.1.13,2013-05-20 04:54:00,
2013-05-19 23:55:00,57.5,56.1,29.51,NE,48,10.0,13.0,95,0.00,,,1.29,Wunderground v.1.13,2013-05-20 04:55:00,
2013-05-19 23:56:00,57.4,56.0,29.52,NE,45,11.0,13.0,95,0.00,,,1.29,Wunderground v.1.13,2013-05-20 04:56:00,